| time (UTC) | temp C | wind direction | speed KPH | gust KPH | rain 1hr cm | rain 24hr cm | rain mn cm | humidity % | barometer mb |
| 20260906131004 | 21 | 120 | 4.8 | 9.7 | 0.00 | 0.00 | 0.00 | 91 | 1020.6 |
| 20260906130902 | 21 | 91 | 9.7 | 9.7 | 0.00 | 0.00 | 0.00 | 91 | 1020.6 |
| 20260906130801 | 21 | 97 | 0.0 | 8.0 | 0.00 | 0.00 | 0.00 | 91 | 1020.6 |
| 20260906130700 | 21 | 105 | 1.6 | 8.0 | 0.00 | 0.00 | 0.00 | 91 | 1020.6 |
| 20260906130601 | 21 | 105 | 0.0 | 8.0 | 0.00 | 0.00 | 0.00 | 91 | 1020.6 |
| 20260906130501 | 21 | 152 | 3.2 | 8.0 | 0.00 | 0.00 | 0.00 | 91 | 1020.6 |
| 20260906130401 | 21 | 90 | 1.6 | 8.0 | 0.00 | 0.00 | 0.00 | 91 | 1020.6 |
| 20260906130301 | 21 | 117 | 4.8 | 8.0 | 0.00 | 0.00 | 0.00 | 92 | 1020.6 |
| 20260906130202 | 21 | 79 | 1.6 | 9.7 | 0.00 | 0.00 | 0.00 | 92 | 1020.6 |
| 20260906130104 | 21 | 90 | 3.2 | 9.7 | 0.00 | 0.00 | 0.00 | 92 | 1020.6 |
| 20260906130004 | 21 | 112 | 3.2 | 9.7 | 0.00 | 0.00 | 0.00 | 92 | 1020.6 |
| 20260906125904 | 21 | 101 | 3.2 | 9.7 | 0.00 | 0.00 | 0.00 | 92 | 1020.6 |
| 20260906125801 | 21 | 108 | 0.0 | 9.7 | 0.00 | 0.00 | 0.00 | 92 | 1020.5 |
| 20260906125701 | 21 | 44 | 0.0 | 9.7 | 0.00 | 0.00 | 0.00 | 92 | 1020.6 |
| 20260906125601 | 20 | 79 | 3.2 | 9.7 | 0.00 | 0.00 | 0.00 | 92 | 1020.5 |
| 20260906125504 | 20 | 104 | 1.6 | 9.7 | 0.00 | 0.00 | 0.00 | 92 | 1020.6 |
| 20260906125103 | 20 | 82 | 1.6 | 8.0 | 0.00 | 0.00 | 0.00 | 92 | 1020.5 |
| 20260906125001 | 20 | 60 | 6.4 | 8.0 | 0.00 | 0.00 | 0.00 | 92 | 1020.5 |
| 20260906124901 | 20 | 98 | 1.6 | 8.0 | 0.00 | 0.00 | 0.00 | 92 | 1020.5 |
| 20260906124805 | 20 | 131 | 1.6 | 8.0 | 0.00 | 0.00 | 0.00 | 93 | 1020.5 |
| 20260906124701 | 20 | 110 | 0.0 | 8.0 | 0.00 | 0.00 | 0.00 | 93 | 1020.5 |
| 20260906124604 | 20 | 118 | 0.0 | 8.0 | 0.00 | 0.00 | 0.00 | 93 | 1020.5 |
| 20260906124501 | 20 | 357 | 0.0 | 8.0 | 0.00 | 0.00 | 0.00 | 93 | 1020.5 |
| 20260906124403 | 20 | 85 | 1.6 | 8.0 | 0.00 | 0.00 | 0.00 | 93 | 1020.5 |
| 20260906124302 | 20 | 86 | 1.6 | 8.0 | 0.00 | 0.00 | 0.00 | 93 | 1020.5 |
| 20260906124203 | 20 | 78 | 3.2 | 6.4 | 0.00 | 0.00 | 0.00 | 93 | 1020.4 |
| 20260906124106 | 20 | 67 | 1.6 | 6.4 | 0.00 | 0.00 | 0.00 | 93 | 1020.5 |
| 20260906124002 | 20 | 100 | 3.2 | 6.4 | 0.00 | 0.00 | 0.00 | 93 | 1020.4 |
| 20260906123903 | 20 | 86 | 0.0 | 6.4 | 0.00 | 0.00 | 0.00 | 93 | 1020.4 |
| 20260906123804 | 20 | 115 | 1.6 | 6.4 | 0.00 | 0.00 | 0.00 | 93 | 1020.4 |
| 20260906123701 | 20 | 81 | 3.2 | 6.4 | 0.00 | 0.00 | 0.00 | 94 | 1020.5 |
| 20260906123603 | 20 | 77 | 0.0 | 6.4 | 0.00 | 0.00 | 0.00 | 94 | 1020.5 |
| 20260906123504 | 20 | 54 | 0.0 | 6.4 | 0.00 | 0.00 | 0.00 | 94 | 1020.5 |
| 20260906123400 | 20 | 54 | 1.6 | 6.4 | 0.00 | 0.00 | 0.00 | 94 | 1020.5 |
| 20260906123302 | 20 | 48 | 0.0 | 6.4 | 0.00 | 0.00 | 0.00 | 94 | 1020.5 |
| 20260906123202 | 20 | 30 | 0.0 | 6.4 | 0.00 | 0.00 | 0.00 | 94 | 1020.5 |
| 20260906123101 | 20 | 356 | 3.2 | 3.2 | 0.00 | 0.00 | 0.00 | 94 | 1020.5 |
| 20260906123004 | 20 | 25 | 0.0 | 3.2 | 0.00 | 0.00 | 0.00 | 94 | 1020.5 |
| 20260906122904 | 20 | 198 | 0.0 | 3.2 | 0.00 | 0.00 | 0.00 | 94 | 1020.5 |
| 20260906122804 | 20 | 197 | 0.0 | 3.2 | 0.00 | 0.00 | 0.00 | 94 | 1020.5 |
| 20260906122605 | 20 | 117 | 0.0 | 3.2 | 0.00 | 0.00 | 0.00 | 94 | 1020.6 |
| 20260906122501 | 19 | 116 | 0.0 | 3.2 | 0.00 | 0.00 | 0.00 | 94 | 1020.5 |
| 20260906122404 | 19 | 18 | 0.0 | 1.6 | 0.00 | 0.00 | 0.00 | 94 | 1020.6 |
| 20260906122101 | 19 | 183 | 0.0 | 3.2 | 0.00 | 0.00 | 0.00 | 94 | 1020.6 |
| 20260906122004 | 19 | 183 | 0.0 | 3.2 | 0.00 | 0.00 | 0.00 | 94 | 1020.6 |
| 20260906121904 | 19 | 206 | 0.0 | 3.2 | 0.00 | 0.00 | 0.00 | 94 | 1020.6 |
| 20260906121800 | 19 | 205 | 0.0 | 3.2 | 0.00 | 0.00 | 0.00 | 94 | 1020.5 |
| 20260906121704 | 19 | 334 | 0.0 | 3.2 | 0.00 | 0.00 | 0.00 | 94 | 1020.4 |
| 20260906121504 | 19 | 338 | 0.0 | 3.2 | 0.00 | 0.00 | 0.00 | 94 | 1020.4 |
| 20260906121204 | 19 | 49 | 0.0 | 1.6 | 0.00 | 0.00 | 0.00 | 94 | 1020.3 |
| 20260906121103 | 19 | 48 | 0.0 | 1.6 | 0.00 | 0.00 | 0.00 | 94 | 1020.3 |
| 20260906120904 | 19 | 49 | 0.0 | 1.6 | 0.00 | 0.00 | 0.00 | 94 | 1020.2 |
| 20260906120801 | 19 | 35 | 0.0 | 3.2 | 0.00 | 0.00 | 0.00 | 94 | 1020.2 |
| 20260906120702 | 19 | 36 | 1.6 | 3.2 | 0.00 | 0.00 | 0.00 | 94 | 1020.1 |
| 20260906120501 | 19 | 30 | 1.6 | 4.8 | 0.00 | 0.00 | 0.00 | 94 | 1020.1 |
| 20260906120401 | 19 | 80 | 0.0 | 4.8 | 0.00 | 0.00 | 0.00 | 94 | 1020.1 |
| 20260906120305 | 19 | 58 | 1.6 | 4.8 | 0.00 | 0.00 | 0.00 | 94 | 1020.1 |
| 20260906120201 | 19 | 8 | 1.6 | 4.8 | 0.00 | 0.00 | 0.00 | 94 | 1020.1 |
| 20260906120104 | 19 | 14 | 0.0 | 4.8 | 0.00 | 0.00 | 0.00 | 94 | 1020.1 |
| 20260906115901 | 19 | 353 | 0.0 | 4.8 | 0.00 | 0.00 | 0.00 | 94 | 1020.0 |
| 20260906115702 | 19 | 203 | 0.0 | 3.2 | 0.00 | 0.00 | 0.00 | 94 | 1020.1 |
| 20260906115400 | 19 | 185 | 0.0 | 3.2 | 0.00 | 0.00 | 0.00 | 94 | 1020.0 |
| 20260906115301 | 19 | 188 | 0.0 | 3.2 | 0.00 | 0.00 | 0.00 | 94 | 1020.0 |
| 20260906115202 | 19 | 188 | 0.0 | 3.2 | 0.00 | 0.00 | 0.00 | 94 | 1020.0 |
| 20260906115101 | 19 | 199 | 0.0 | 3.2 | 0.00 | 0.00 | 0.00 | 94 | 1019.9 |
| 20260906115001 | 19 | 200 | 0.0 | 3.2 | 0.00 | 0.00 | 0.00 | 94 | 1019.9 |
| 20260906114902 | 18 | 200 | 0.0 | 3.2 | 0.00 | 0.00 | 0.00 | 94 | 1019.9 |
| 20260906114801 | 18 | 200 | 0.0 | 3.2 | 0.00 | 0.00 | 0.00 | 94 | 1019.8 |
| 20260906114600 | 18 | 357 | 0.0 | 3.2 | 0.00 | 0.00 | 0.00 | 94 | 1019.8 |
| 20260906114502 | 18 | 38 | 0.0 | 3.2 | 0.00 | 0.00 | 0.00 | 94 | 1019.8 |
| 20260906114402 | 18 | 38 | 0.0 | 3.2 | 0.00 | 0.00 | 0.00 | 94 | 1019.8 |
| 20260906114301 | 18 | 356 | 0.0 | 3.2 | 0.00 | 0.00 | 0.00 | 94 | 1019.8 |
| 20260906114202 | 18 | 94 | 0.0 | 3.2 | 0.00 | 0.00 | 0.00 | 94 | 1019.7 |
| 20260906114101 | 18 | 117 | 0.0 | 3.2 | 0.00 | 0.00 | 0.00 | 94 | 1019.7 |
| 20260906114001 | 18 | 122 | 0.0 | 3.2 | 0.00 | 0.00 | 0.00 | 94 | 1019.7 |
| 20260906113901 | 18 | 120 | 0.0 | 3.2 | 0.00 | 0.00 | 0.00 | 94 | 1019.7 |
| 20260906113801 | 18 | 13 | 0.0 | 3.2 | 0.00 | 0.00 | 0.00 | 94 | 1019.7 |
| 20260906113659 | 18 | 325 | 0.0 | 3.2 | 0.00 | 0.00 | 0.00 | 94 | 1019.7 |
| 20260906113501 | 18 | 335 | 0.0 | 3.2 | 0.00 | 0.00 | 0.00 | 94 | 1019.7 |
| 20260906113201 | 18 | 352 | 0.0 | 3.2 | 0.00 | 0.00 | 0.00 | 94 | 1019.6 |
| 20260906113102 | 18 | 29 | 0.0 | 3.2 | 0.00 | 0.00 | 0.00 | 94 | 1019.6 |
| 20260906113000 | 18 | 29 | 0.0 | 3.2 | 0.00 | 0.00 | 0.00 | 94 | 1019.7 |
| 20260906112904 | 18 | 30 | 0.0 | 3.2 | 0.00 | 0.00 | 0.00 | 94 | 1019.6 |
| 20260906112802 | 18 | 30 | 0.0 | 3.2 | 0.00 | 0.00 | 0.00 | 94 | 1019.7 |
| 20260906112604 | 18 | 34 | 0.0 | 4.8 | 0.00 | 0.00 | 0.00 | 94 | 1019.5 |
| 20260906112501 | 18 | 15 | 1.6 | 4.8 | 0.00 | 0.00 | 0.00 | 94 | 1019.4 |
| 20260906112402 | 18 | 1 | 1.6 | 4.8 | 0.00 | 0.00 | 0.00 | 94 | 1019.4 |
| 20260906112301 | 18 | 15 | 0.0 | 4.8 | 0.00 | 0.00 | 0.00 | 94 | 1019.4 |
| 20260906112200 | 18 | 15 | 0.0 | 4.8 | 0.00 | 0.00 | 0.00 | 94 | 1019.4 |
| 20260906112103 | 18 | 16 | 0.0 | 4.8 | 0.00 | 0.00 | 0.00 | 94 | 1019.4 |
| 20260906112000 | 18 | 28 | 3.2 | 4.8 | 0.00 | 0.00 | 0.00 | 94 | 1019.4 |
| 20260906111900 | 18 | 274 | 0.0 | 4.8 | 0.00 | 0.00 | 0.00 | 94 | 1019.4 |
| 20260906111800 | 18 | 29 | 1.6 | 4.8 | 0.00 | 0.00 | 0.00 | 94 | 1019.3 |
| 20260906111700 | 18 | 18 | 0.0 | 4.8 | 0.00 | 0.00 | 0.00 | 94 | 1019.4 |
| 20260906111600 | 18 | 108 | 0.0 | 4.8 | 0.00 | 0.00 | 0.00 | 94 | 1019.3 |
| 20260906111403 | 18 | 328 | 0.0 | 4.8 | 0.00 | 0.00 | 0.00 | 94 | 1019.4 |
| 20260906111300 | 18 | 1 | 3.2 | 3.2 | 0.00 | 0.00 | 0.00 | 94 | 1019.4 |
| 20260906111201 | 18 | 6 | 1.6 | 3.2 | 0.00 | 0.00 | 0.00 | 94 | 1019.3 |
| 20260906111100 | 18 | 9 | 0.0 | 3.2 | 0.00 | 0.00 | 0.00 | 94 | 1019.3 |
| 20260906111001 | 18 | 9 | 0.0 | 3.2 | 0.00 | 0.00 | 0.00 | 94 | 1019.2 |
| 20260906110901 | 18 | 82 | 0.0 | 3.2 | 0.00 | 0.00 | 0.00 | 94 | 1019.3 |
| 20260906110702 | 18 | 81 | 1.6 | 3.2 | 0.00 | 0.00 | 0.00 | 94 | 1019.3 |
| 20260906110502 | 18 | 359 | 0.0 | 1.6 | 0.00 | 0.00 | 0.00 | 94 | 1019.3 |
| 20260906110400 | 18 | 360 | 0.0 | 1.6 | 0.00 | 0.00 | 0.00 | 94 | 1019.2 |
| 20260906110301 | 18 | 356 | 0.0 | 1.6 | 0.00 | 0.00 | 0.00 | 94 | 1019.3 |
| 20260906110202 | 18 | 356 | 0.0 | 1.6 | 0.00 | 0.00 | 0.00 | 94 | 1019.2 |
| 20260906110006 | 18 | 32 | 0.0 | 3.2 | 0.00 | 0.00 | 0.00 | 94 | 1019.1 |
| 20260906105903 | 18 | 32 | 0.0 | 3.2 | 0.00 | 0.00 | 0.00 | 94 | 1019.3 |
| 20260906105802 | 18 | 32 | 0.0 | 3.2 | 0.00 | 0.00 | 0.00 | 94 | 1019.2 |
| 20260906105601 | 18 | 32 | 0.0 | 4.8 | 0.00 | 0.00 | 0.00 | 94 | 1019.4 |
| 20260906105459 | 18 | 32 | 0.0 | 4.8 | 0.00 | 0.00 | 0.00 | 94 | 1019.4 |
| 20260906105401 | 18 | 39 | 1.6 | 4.8 | 0.00 | 0.00 | 0.00 | 94 | 1019.4 |
| 20260906105301 | 18 | 51 | 1.6 | 4.8 | 0.00 | 0.00 | 0.00 | 94 | 1019.4 |
| 20260906105201 | 18 | 59 | 1.6 | 4.8 | 0.00 | 0.00 | 0.00 | 94 | 1019.4 |
| 20260906105101 | 18 | 19 | 3.2 | 4.8 | 0.00 | 0.00 | 0.00 | 94 | 1019.2 |
| 20260906105000 | 18 | 16 | 0.0 | 4.8 | 0.00 | 0.00 | 0.00 | 94 | 1019.3 |
| 20260906104902 | 18 | 15 | 3.2 | 3.2 | 0.00 | 0.00 | 0.00 | 94 | 1019.3 |
| 20260906104801 | 18 | 328 | 1.6 | 3.2 | 0.00 | 0.00 | 0.00 | 94 | 1019.2 |
| 20260906104701 | 18 | 27 | 1.6 | 3.2 | 0.00 | 0.00 | 0.00 | 94 | 1019.1 |
| 20260906104603 | 18 | 20 | 0.0 | 3.2 | 0.00 | 0.00 | 0.00 | 94 | 1019.0 |
| 20260906104501 | 18 | 20 | 0.0 | 3.2 | 0.00 | 0.00 | 0.00 | 94 | 1018.9 |
| 20260906104402 | 18 | 20 | 0.0 | 3.2 | 0.00 | 0.00 | 0.00 | 94 | 1019.0 |
| 20260906104300 | 18 | 21 | 0.0 | 3.2 | 0.00 | 0.00 | 0.00 | 94 | 1018.9 |
| 20260906104203 | 18 | 21 | 0.0 | 3.2 | 0.00 | 0.00 | 0.00 | 94 | 1019.0 |
| 20260906104106 | 18 | 20 | 0.0 | 3.2 | 0.00 | 0.00 | 0.00 | 94 | 1019.0 |
| 20260906103902 | 18 | 15 | 0.0 | 3.2 | 0.00 | 0.00 | 0.00 | 94 | 1019.0 |
| 20260906103801 | 18 | 28 | 0.0 | 3.2 | 0.00 | 0.00 | 0.00 | 94 | 1019.1 |
| 20260906103501 | 18 | 312 | 0.0 | 3.2 | 0.00 | 0.00 | 0.00 | 94 | 1019.1 |
| 20260906103401 | 18 | 37 | 0.0 | 3.2 | 0.00 | 0.00 | 0.00 | 94 | 1019.0 |
| 20260906103302 | 18 | 35 | 3.2 | 3.2 | 0.00 | 0.00 | 0.00 | 94 | 1019.0 |
| 20260906103201 | 18 | 60 | 0.0 | 3.2 | 0.00 | 0.00 | 0.00 | 94 | 1019.0 |
| 20260906103101 | 18 | 60 | 0.0 | 3.2 | 0.00 | 0.00 | 0.00 | 94 | 1019.0 |
| 20260906103001 | 18 | 60 | 1.6 | 3.2 | 0.00 | 0.00 | 0.00 | 94 | 1019.1 |
| 20260906102900 | 18 | 34 | 0.0 | 3.2 | 0.00 | 0.00 | 0.00 | 94 | 1018.9 |
| 20260906102801 | 18 | 34 | 1.6 | 3.2 | 0.00 | 0.00 | 0.00 | 94 | 1018.9 |
| 20260906102700 | 18 | 34 | 0.0 | 3.2 | 0.00 | 0.00 | 0.00 | 94 | 1018.9 |
| 20260906102601 | 18 | 338 | 0.0 | 3.2 | 0.00 | 0.00 | 0.00 | 94 | 1018.9 |
| 20260906102502 | 18 | 57 | 3.2 | 3.2 | 0.00 | 0.00 | 0.00 | 94 | 1018.9 |
| 20260906102400 | 18 | 115 | 0.0 | 3.2 | 0.00 | 0.00 | 0.00 | 94 | 1018.8 |
| 20260906102305 | 18 | 115 | 0.0 | 3.2 | 0.00 | 0.00 | 0.00 | 94 | 1018.9 |
| 20260906102203 | 18 | 4 | 0.0 | 3.2 | 0.00 | 0.00 | 0.00 | 94 | 1018.8 |
| 20260906102101 | 18 | 4 | 0.0 | 3.2 | 0.00 | 0.00 | 0.00 | 94 | 1018.9 |
| 20260906102001 | 18 | 3 | 0.0 | 3.2 | 0.00 | 0.00 | 0.00 | 94 | 1019.0 |
| 20260906101903 | 18 | 5 | 0.0 | 3.2 | 0.00 | 0.00 | 0.00 | 94 | 1018.9 |
| 20260906101801 | 18 | 18 | 0.0 | 3.2 | 0.00 | 0.00 | 0.00 | 94 | 1018.9 |
| 20260906101704 | 18 | 18 | 1.6 | 3.2 | 0.00 | 0.00 | 0.00 | 94 | 1018.9 |
| 20260906101600 | 18 | 354 | 1.6 | 1.6 | 0.00 | 0.00 | 0.00 | 94 | 1018.9 |
| 20260906101501 | 18 | 354 | 0.0 | 1.6 | 0.00 | 0.00 | 0.00 | 94 | 1018.9 |
| 20260906101401 | 18 | 354 | 0.0 | 1.6 | 0.00 | 0.00 | 0.00 | 94 | 1018.9 |
| 20260906101301 | 18 | 205 | 0.0 | 1.6 | 0.00 | 0.00 | 0.00 | 94 | 1018.9 |
| 20260906101201 | 18 | 205 | 0.0 | 1.6 | 0.00 | 0.00 | 0.00 | 94 | 1018.9 |
| 20260906101101 | 18 | 205 | 0.0 | 3.2 | 0.00 | 0.00 | 0.00 | 94 | 1018.9 |
| 20260906101002 | 18 | 105 | 1.6 | 3.2 | 0.00 | 0.00 | 0.00 | 94 | 1018.9 |
| 20260906100901 | 18 | 86 | 0.0 | 3.2 | 0.00 | 0.00 | 0.00 | 94 | 1018.9 |
| 20260906100801 | 18 | 89 | 0.0 | 3.2 | 0.00 | 0.00 | 0.00 | 94 | 1018.9 |
| 20260906100701 | 18 | 89 | 0.0 | 3.2 | 0.00 | 0.00 | 0.00 | 94 | 1018.9 |
| 20260906100602 | 18 | 350 | 0.0 | 3.2 | 0.00 | 0.00 | 0.00 | 94 | 1018.9 |
| 20260906100502 | 18 | 1 | 0.0 | 3.2 | 0.00 | 0.00 | 0.00 | 94 | 1018.9 |
| 20260906100302 | 18 | 3 | 0.0 | 4.8 | 0.00 | 0.00 | 0.00 | 94 | 1018.8 |
| 20260906100203 | 18 | 103 | 0.0 | 4.8 | 0.00 | 0.00 | 0.00 | 94 | 1018.8 |
| 20260906100101 | 18 | 110 | 3.2 | 4.8 | 0.00 | 0.00 | 0.00 | 94 | 1018.8 |
| 20260906100000 | 18 | 347 | 3.2 | 4.8 | 0.00 | 0.00 | 0.00 | 94 | 1018.8 |
| 20260906095659 | 18 | 40 | 0.0 | 4.8 | 0.00 | 0.00 | 0.00 | 94 | 1018.8 |
| 20260906095602 | 18 | 357 | 1.6 | 4.8 | 0.00 | 0.00 | 0.00 | 94 | 1018.7 |
| 20260906095459 | 18 | 31 | 0.0 | 3.2 | 0.00 | 0.00 | 0.00 | 94 | 1018.8 |
| 20260906095400 | 18 | 31 | 3.2 | 3.2 | 0.00 | 0.00 | 0.00 | 94 | 1018.7 |
| 20260906095202 | 19 | 19 | 0.0 | 3.2 | 0.00 | 0.00 | 0.00 | 94 | 1018.7 |
| 20260906095101 | 19 | 18 | 0.0 | 3.2 | 0.00 | 0.00 | 0.00 | 94 | 1018.7 |
| 20260906095001 | 19 | 18 | 0.0 | 3.2 | 0.00 | 0.00 | 0.00 | 94 | 1018.7 |
| 20260906094801 | 19 | 5 | 0.0 | 3.2 | 0.00 | 0.00 | 0.00 | 94 | 1018.6 |
| 20260906094700 | 19 | 5 | 0.0 | 3.2 | 0.00 | 0.00 | 0.00 | 94 | 1018.7 |
| 20260906094601 | 19 | 5 | 1.6 | 3.2 | 0.00 | 0.00 | 0.00 | 94 | 1018.7 |
| 20260906094503 | 19 | 23 | 0.0 | 3.2 | 0.00 | 0.00 | 0.00 | 94 | 1018.6 |
| 20260906094401 | 19 | 22 | 0.0 | 3.2 | 0.00 | 0.00 | 0.00 | 94 | 1018.7 |
| 20260906094301 | 19 | 13 | 0.0 | 3.2 | 0.00 | 0.00 | 0.00 | 94 | 1018.6 |
| 20260906094204 | 19 | 306 | 0.0 | 3.2 | 0.00 | 0.00 | 0.00 | 94 | 1018.6 |
| 20260906094103 | 19 | 143 | 1.6 | 3.2 | 0.00 | 0.00 | 0.00 | 94 | 1018.7 |
| 20260906094001 | 19 | 145 | 0.0 | 4.8 | 0.00 | 0.00 | 0.00 | 94 | 1018.7 |
| 20260906093900 | 19 | 102 | 3.2 | 4.8 | 0.00 | 0.00 | 0.00 | 94 | 1018.6 |
| 20260906093802 | 19 | 349 | 1.6 | 4.8 | 0.00 | 0.00 | 0.00 | 94 | 1018.6 |
| 20260906093702 | 19 | 69 | 0.0 | 4.8 | 0.00 | 0.00 | 0.00 | 94 | 1018.6 |
| 20260906093602 | 19 | 3 | 0.0 | 4.8 | 0.00 | 0.00 | 0.00 | 94 | 1018.6 |
| 20260906093402 | 19 | 13 | 0.0 | 4.8 | 0.00 | 0.00 | 0.00 | 94 | 1018.6 |
| 20260906093301 | 19 | 14 | 0.0 | 4.8 | 0.00 | 0.00 | 0.00 | 94 | 1018.7 |
| 20260906093201 | 19 | 9 | 3.2 | 4.8 | 0.00 | 0.00 | 0.00 | 94 | 1018.6 |
| 20260906093103 | 19 | 348 | 0.0 | 3.2 | 0.00 | 0.00 | 0.00 | 94 | 1018.6 |
| 20260906093001 | 19 | 346 | 1.6 | 3.2 | 0.00 | 0.00 | 0.00 | 94 | 1018.6 |
| 20260906092900 | 19 | 346 | 0.0 | 3.2 | 0.00 | 0.00 | 0.00 | 94 | 1018.7 |
| 20260906092802 | 19 | 347 | 1.6 | 3.2 | 0.00 | 0.00 | 0.00 | 94 | 1018.7 |
| 20260906092701 | 19 | 345 | 0.0 | 3.2 | 0.00 | 0.00 | 0.00 | 94 | 1018.6 |
| 20260906092602 | 19 | 345 | 0.0 | 3.2 | 0.00 | 0.00 | 0.00 | 94 | 1018.7 |
| 20260906092501 | 19 | 347 | 0.0 | 3.2 | 0.00 | 0.00 | 0.00 | 94 | 1018.7 |
| 20260906092401 | 19 | 28 | 0.0 | 1.6 | 0.00 | 0.00 | 0.00 | 94 | 1018.6 |
| 20260906092201 | 19 | 356 | 0.0 | 4.8 | 0.00 | 0.00 | 0.00 | 94 | 1018.6 |
| 20260906092101 | 19 | 114 | 0.0 | 4.8 | 0.00 | 0.00 | 0.00 | 94 | 1018.7 |
| 20260906092003 | 19 | 115 | 0.0 | 4.8 | 0.00 | 0.00 | 0.00 | 94 | 1018.7 |
| 20260906091900 | 19 | 9 | 1.6 | 4.8 | 0.00 | 0.00 | 0.00 | 94 | 1018.7 |
| 20260906091701 | 19 | 90 | 0.0 | 4.8 | 0.00 | 0.00 | 0.00 | 94 | 1018.6 |
| 20260906091601 | 19 | 93 | 0.0 | 4.8 | 0.00 | 0.00 | 0.00 | 94 | 1018.6 |
| 20260906091502 | 19 | 98 | 0.0 | 4.8 | 0.00 | 0.00 | 0.00 | 94 | 1018.5 |
| 20260906091400 | 19 | 333 | 0.0 | 4.8 | 0.00 | 0.00 | 0.00 | 94 | 1018.6 |
| 20260906091103 | 19 | 359 | 0.0 | 3.2 | 0.00 | 0.00 | 0.00 | 94 | 1018.6 |
| 20260906091001 | 19 | 360 | 0.0 | 3.2 | 0.00 | 0.00 | 0.00 | 94 | 1018.6 |
| 20260906090900 | 19 | 1 | 0.0 | 3.2 | 0.00 | 0.00 | 0.00 | 94 | 1018.5 |
| 20260906090801 | 19 | 347 | 1.6 | 3.2 | 0.00 | 0.00 | 0.00 | 94 | 1018.5 |
| 20260906090602 | 19 | 15 | 0.0 | 3.2 | 0.00 | 0.00 | 0.00 | 94 | 1018.5 |
| 20260906090501 | 19 | 16 | 0.0 | 3.2 | 0.00 | 0.00 | 0.00 | 94 | 1018.6 |
| 20260906090300 | 19 | 354 | 0.0 | 3.2 | 0.00 | 0.00 | 0.00 | 94 | 1018.6 |
| 20260906090201 | 19 | 1 | 0.0 | 3.2 | 0.00 | 0.00 | 0.00 | 94 | 1018.6 |
| 20260906090001 | 19 | 354 | 0.0 | 3.2 | 0.00 | 0.00 | 0.00 | 93 | 1018.6 |
| 20260906085901 | 19 | 14 | 0.0 | 3.2 | 0.00 | 0.00 | 0.00 | 94 | 1018.6 |
| 20260906085800 | 19 | 15 | 1.6 | 3.2 | 0.00 | 0.00 | 0.00 | 93 | 1018.6 |
| 20260906085600 | 19 | 123 | 0.0 | 1.6 | 0.00 | 0.00 | 0.00 | 93 | 1018.6 |
| 20260906085203 | 19 | 23 | 0.0 | 1.6 | 0.00 | 0.00 | 0.00 | 93 | 1018.7 |
| 20260906085000 | 19 | 22 | 0.0 | 1.6 | 0.00 | 0.00 | 0.00 | 93 | 1018.7 |
| 20260906084900 | 19 | 22 | 0.0 | 1.6 | 0.00 | 0.00 | 0.00 | 93 | 1018.6 |
| 20260906084801 | 19 | 22 | 0.0 | 1.6 | 0.00 | 0.00 | 0.00 | 93 | 1018.6 |
| 20260906084700 | 19 | 23 | 0.0 | 1.6 | 0.00 | 0.00 | 0.00 | 93 | 1018.6 |
| 20260906084600 | 19 | 20 | 0.0 | 1.6 | 0.00 | 0.00 | 0.00 | 93 | 1018.6 |
| 20260906084400 | 19 | 21 | 0.0 | 1.6 | 0.00 | 0.00 | 0.00 | 93 | 1018.6 |
| 20260906084201 | 19 | 20 | 0.0 | 1.6 | 0.00 | 0.00 | 0.00 | 93 | 1018.6 |
| 20260906084101 | 20 | 20 | 0.0 | 1.6 | 0.00 | 0.00 | 0.00 | 93 | 1018.6 |
| 20260906084000 | 19 | 4 | 0.0 | 1.6 | 0.00 | 0.00 | 0.00 | 93 | 1018.6 |
| 20260906083900 | 20 | 4 | 1.6 | 3.2 | 0.00 | 0.00 | 0.00 | 93 | 1018.6 |
| 20260906083800 | 19 | 106 | 0.0 | 4.8 | 0.00 | 0.00 | 0.00 | 93 | 1018.5 |
| 20260906083700 | 20 | 80 | 1.6 | 4.8 | 0.00 | 0.00 | 0.00 | 93 | 1018.5 |
| 20260906083459 | 20 | 86 | 0.0 | 4.8 | 0.00 | 0.00 | 0.00 | 93 | 1018.5 |
| 20260906083400 | 20 | 22 | 0.0 | 4.8 | 0.00 | 0.00 | 0.00 | 93 | 1018.6 |
| 20260906083259 | 20 | 22 | 0.0 | 4.8 | 0.00 | 0.00 | 0.00 | 93 | 1018.6 |
| 20260906083201 | 20 | 22 | 0.0 | 4.8 | 0.00 | 0.00 | 0.00 | 93 | 1018.5 |
| 20260906083059 | 20 | 22 | 0.0 | 4.8 | 0.00 | 0.00 | 0.00 | 93 | 1018.6 |
| 20260906082959 | 20 | 23 | 1.6 | 4.8 | 0.00 | 0.00 | 0.00 | 93 | 1018.6 |
| 20260906082900 | 20 | 23 | 0.0 | 3.2 | 0.00 | 0.00 | 0.00 | 93 | 1018.5 |
| 20260906082759 | 20 | 23 | 0.0 | 3.2 | 0.00 | 0.00 | 0.00 | 93 | 1018.5 |
| 20260906082500 | 20 | 4 | 0.0 | 3.2 | 0.00 | 0.00 | 0.00 | 93 | 1018.6 |
| 20260906082400 | 20 | 15 | 0.0 | 3.2 | 0.00 | 0.00 | 0.00 | 93 | 1018.5 |
| 20260906082259 | 20 | 29 | 0.0 | 3.2 | 0.00 | 0.00 | 0.00 | 93 | 1018.6 |
| 20260906082159 | 20 | 29 | 0.0 | 3.2 | 0.00 | 0.00 | 0.00 | 93 | 1018.6 |
| 20260906081900 | 20 | 29 | 0.0 | 3.2 | 0.00 | 0.00 | 0.00 | 93 | 1018.6 |
| 20260906081759 | 20 | 29 | 0.0 | 3.2 | 0.00 | 0.00 | 0.00 | 93 | 1018.7 |
| 20260906081700 | 20 | 29 | 1.6 | 3.2 | 0.00 | 0.00 | 0.00 | 93 | 1018.5 |
| 20260906081559 | 20 | 30 | 3.2 | 3.2 | 0.00 | 0.00 | 0.00 | 93 | 1018.6 |
| 20260906081501 | 20 | 66 | 0.0 | 1.6 | 0.00 | 0.00 | 0.00 | 93 | 1018.5 |
| 20260906081358 | 20 | 66 | 0.0 | 1.6 | 0.00 | 0.00 | 0.00 | 93 | 1018.6 |
| 20260906081259 | 20 | 66 | 0.0 | 1.6 | 0.00 | 0.00 | 0.00 | 93 | 1018.6 |
| 20260906081159 | 20 | 66 | 1.6 | 1.6 | 0.00 | 0.00 | 0.00 | 93 | 1018.6 |
| 20260906081100 | 20 | 67 | 0.0 | 3.2 | 0.00 | 0.00 | 0.00 | 93 | 1018.7 |
| 20260906081000 | 20 | 66 | 0.0 | 4.8 | 0.00 | 0.00 | 0.00 | 93 | 1018.7 |
| 20260906080900 | 20 | 66 | 0.0 | 4.8 | 0.00 | 0.00 | 0.00 | 93 | 1018.7 |
| 20260906080700 | 20 | 71 | 0.0 | 4.8 | 0.00 | 0.00 | 0.00 | 93 | 1018.7 |
| 20260906080559 | 20 | 71 | 0.0 | 4.8 | 0.00 | 0.00 | 0.00 | 93 | 1018.7 |
| 20260906080500 | 20 | 71 | 1.6 | 4.8 | 0.00 | 0.00 | 0.00 | 93 | 1018.7 |
| 20260906080359 | 20 | 70 | 0.0 | 4.8 | 0.00 | 0.00 | 0.00 | 93 | 1018.7 |
| 20260906080300 | 20 | 72 | 0.0 | 4.8 | 0.00 | 0.00 | 0.00 | 93 | 1018.6 |
| 20260906080159 | 20 | 71 | 3.2 | 4.8 | 0.00 | 0.00 | 0.00 | 93 | 1018.6 |
| 20260906080004 | 20 | 93 | 0.0 | 1.6 | 0.00 | 0.00 | 0.00 | 93 | 1018.6 |
| 20260906075901 | 20 | 41 | 0.0 | 1.6 | 0.00 | 0.00 | 0.00 | 93 | 1018.7 |
| 20260906075800 | 20 | 41 | 0.0 | 1.6 | 0.00 | 0.00 | 0.00 | 93 | 1018.8 |
| 20260906075700 | 20 | 41 | 1.6 | 1.6 | 0.00 | 0.00 | 0.00 | 93 | 1018.7 |
| 20260906075600 | 20 | 134 | 0.0 | 1.6 | 0.00 | 0.00 | 0.00 | 93 | 1018.8 |
| 20260906075501 | 20 | 135 | 1.6 | 1.6 | 0.00 | 0.00 | 0.00 | 93 | 1018.7 |
| 20260906075403 | 20 | 200 | 0.0 | 1.6 | 0.00 | 0.00 | 0.00 | 93 | 1018.8 |
| 20260906075301 | 20 | 198 | 0.0 | 1.6 | 0.00 | 0.00 | 0.00 | 93 | 1018.7 |
| 20260906075103 | 20 | 198 | 0.0 | 1.6 | 0.00 | 0.00 | 0.00 | 93 | 1018.7 |
| 20260906075001 | 20 | 156 | 0.0 | 1.6 | 0.00 | 0.00 | 0.00 | 93 | 1018.7 |
| 20260906074901 | 20 | 224 | 0.0 | 1.6 | 0.00 | 0.00 | 0.00 | 93 | 1018.8 |
| 20260906074800 | 20 | 335 | 1.6 | 1.6 | 0.00 | 0.00 | 0.00 | 93 | 1018.9 |
| 20260906074701 | 20 | 333 | 1.6 | 1.6 | 0.00 | 0.00 | 0.00 | 93 | 1018.9 |
| 20260906074600 | 20 | 5 | 0.0 | 1.6 | 0.00 | 0.00 | 0.00 | 93 | 1018.9 |
| 20260906074500 | 20 | 5 | 0.0 | 1.6 | 0.00 | 0.00 | 0.00 | 93 | 1018.9 |
| 20260906074401 | 20 | 5 | 0.0 | 1.6 | 0.00 | 0.00 | 0.00 | 93 | 1018.9 |
| 20260906074300 | 20 | 8 | 0.0 | 1.6 | 0.00 | 0.00 | 0.00 | 93 | 1018.9 |
| 20260906074201 | 20 | 8 | 0.0 | 1.6 | 0.00 | 0.00 | 0.00 | 93 | 1018.9 |
| 20260906074101 | 20 | 67 | 0.0 | 1.6 | 0.00 | 0.00 | 0.00 | 93 | 1018.8 |
| 20260906074002 | 20 | 66 | 0.0 | 1.6 | 0.00 | 0.00 | 0.00 | 93 | 1018.8 |
| 20260906073900 | 20 | 66 | 0.0 | 1.6 | 0.00 | 0.00 | 0.00 | 93 | 1018.8 |
| 20260906073801 | 20 | 67 | 0.0 | 1.6 | 0.00 | 0.00 | 0.00 | 93 | 1018.7 |
| 20260906073501 | 20 | 67 | 0.0 | 1.6 | 0.00 | 0.00 | 0.00 | 93 | 1018.8 |
| 20260906073400 | 20 | 66 | 0.0 | 1.6 | 0.00 | 0.00 | 0.00 | 93 | 1018.7 |
| 20260906073202 | 20 | 67 | 0.0 | 1.6 | 0.00 | 0.00 | 0.00 | 93 | 1018.7 |
| 20260906073100 | 20 | 68 | 0.0 | 1.6 | 0.00 | 0.00 | 0.00 | 93 | 1018.7 |
| 20260906072901 | 20 | 68 | 0.0 | 1.6 | 0.00 | 0.00 | 0.00 | 93 | 1018.7 |
| 20260906072801 | 20 | 68 | 0.0 | 1.6 | 0.00 | 0.00 | 0.00 | 93 | 1018.7 |
| 20260906072700 | 20 | 68 | 0.0 | 1.6 | 0.00 | 0.00 | 0.00 | 92 | 1018.8 |
| 20260906072600 | 20 | 68 | 0.0 | 1.6 | 0.00 | 0.00 | 0.00 | 92 | 1018.8 |
| 20260906072502 | 20 | 68 | 0.0 | 1.6 | 0.00 | 0.00 | 0.00 | 92 | 1018.8 |
| 20260906072305 | 20 | 68 | 0.0 | 1.6 | 0.00 | 0.00 | 0.00 | 92 | 1018.9 |
| 20260906072102 | 20 | 67 | 0.0 | 1.6 | 0.00 | 0.00 | 0.00 | 92 | 1018.9 |
| 20260906071902 | 20 | 67 | 0.0 | 1.6 | 0.00 | 0.00 | 0.00 | 92 | 1018.8 |
| 20260906071801 | 20 | 66 | 0.0 | 1.6 | 0.00 | 0.00 | 0.00 | 92 | 1018.8 |
| 20260906071701 | 20 | 66 | 0.0 | 1.6 | 0.00 | 0.00 | 0.00 | 92 | 1018.8 |
| 20260906071500 | 20 | 66 | 0.0 | 1.6 | 0.00 | 0.00 | 0.00 | 92 | 1018.9 |
| 20260906071400 | 20 | 67 | 0.0 | 1.6 | 0.00 | 0.00 | 0.00 | 92 | 1018.9 |
| 20260906071301 | 20 | 66 | 0.0 | 3.2 | 0.00 | 0.00 | 0.00 | 92 | 1018.8 |
| 20260906071201 | 20 | 66 | 0.0 | 4.8 | 0.00 | 0.00 | 0.00 | 92 | 1018.9 |
| 20260906071101 | 20 | 66 | 1.6 | 4.8 | 0.00 | 0.00 | 0.00 | 92 | 1018.9 |
| 20260906071002 | 20 | 103 | 0.0 | 4.8 | 0.00 | 0.00 | 0.00 | 92 | 1018.9 |
| 20260906070901 | 20 | 103 | 0.0 | 4.8 | 0.00 | 0.00 | 0.00 | 92 | 1018.9 |
| 20260906070700 | 20 | 103 | 0.0 | 4.8 | 0.00 | 0.00 | 0.00 | 92 | 1018.9 |
| 20260906070600 | 20 | 103 | 0.0 | 4.8 | 0.00 | 0.00 | 0.00 | 92 | 1018.9 |
| 20260906070500 | 20 | 103 | 0.0 | 4.8 | 0.00 | 0.00 | 0.00 | 92 | 1018.9 |
| 20260906070401 | 20 | 103 | 0.0 | 4.8 | 0.00 | 0.00 | 0.00 | 92 | 1019.0 |
| 20260906070301 | 20 | 118 | 0.0 | 3.2 | 0.00 | 0.00 | 0.00 | 92 | 1018.9 |
| 20260906065900 | 20 | 84 | 0.0 | 6.4 | 0.00 | 0.00 | 0.00 | 91 | 1019.0 |
| 20260906065701 | 20 | 137 | 0.0 | 6.4 | 0.00 | 0.00 | 0.00 | 91 | 1018.9 |
| 20260906065601 | 20 | 111 | 0.0 | 6.4 | 0.00 | 0.00 | 0.00 | 91 | 1018.9 |
| 20260906065459 | 20 | 111 | 0.0 | 6.4 | 0.00 | 0.00 | 0.00 | 91 | 1018.9 |
| 20260906065301 | 20 | 108 | 0.0 | 6.4 | 0.00 | 0.00 | 0.00 | 91 | 1018.9 |
| 20260906065200 | 20 | 89 | 0.0 | 6.4 | 0.00 | 0.00 | 0.00 | 91 | 1019.0 |
| 20260906065101 | 20 | 122 | 1.6 | 4.8 | 0.00 | 0.00 | 0.00 | 91 | 1019.0 |
| 20260906065001 | 20 | 88 | 1.6 | 4.8 | 0.00 | 0.00 | 0.00 | 91 | 1018.9 |
| 20260906064902 | 20 | 105 | 0.0 | 4.8 | 0.00 | 0.00 | 0.00 | 91 | 1018.9 |
| 20260906064801 | 20 | 91 | 0.0 | 4.8 | 0.00 | 0.00 | 0.00 | 91 | 1018.9 |
| 20260906064700 | 20 | 97 | 0.0 | 4.8 | 0.00 | 0.00 | 0.00 | 91 | 1018.9 |
| 20260906064500 | 20 | 109 | 4.8 | 4.8 | 0.00 | 0.00 | 0.00 | 91 | 1018.9 |
| 20260906064300 | 21 | 101 | 0.0 | 4.8 | 0.00 | 0.00 | 0.00 | 91 | 1018.9 |
| 20260906064202 | 21 | 77 | 3.2 | 4.8 | 0.00 | 0.00 | 0.00 | 91 | 1018.9 |
| 20260906064100 | 21 | 94 | 0.0 | 4.8 | 0.00 | 0.00 | 0.00 | 91 | 1018.9 |
| 20260906064000 | 21 | 94 | 0.0 | 4.8 | 0.00 | 0.00 | 0.00 | 91 | 1018.9 |
| 20260906063900 | 21 | 99 | 3.2 | 4.8 | 0.00 | 0.00 | 0.00 | 91 | 1018.9 |
| 20260906063802 | 21 | 89 | 1.6 | 4.8 | 0.00 | 0.00 | 0.00 | 91 | 1018.9 |
| 20260906063700 | 21 | 100 | 3.2 | 6.4 | 0.00 | 0.00 | 0.00 | 91 | 1018.9 |
| 20260906063601 | 21 | 100 | 1.6 | 6.4 | 0.00 | 0.00 | 0.00 | 91 | 1018.9 |
| 20260906063500 | 21 | 164 | 0.0 | 6.4 | 0.00 | 0.00 | 0.00 | 91 | 1018.8 |
| 20260906063100 | 21 | 104 | 1.6 | 6.4 | 0.00 | 0.00 | 0.00 | 91 | 1018.8 |
| 20260906062900 | 21 | 98 | 6.4 | 6.4 | 0.00 | 0.00 | 0.00 | 91 | 1018.8 |
| 20260906062802 | 21 | 113 | 1.6 | 4.8 | 0.00 | 0.00 | 0.00 | 91 | 1018.8 |
| 20260906062701 | 21 | 102 | 3.2 | 4.8 | 0.00 | 0.00 | 0.00 | 91 | 1018.9 |
| 20260906062601 | 21 | 101 | 0.0 | 3.2 | 0.00 | 0.00 | 0.00 | 91 | 1018.9 |
| 20260906062500 | 21 | 88 | 0.0 | 3.2 | 0.00 | 0.00 | 0.00 | 91 | 1018.9 |
| 20260906062402 | 21 | 91 | 0.0 | 3.2 | 0.00 | 0.00 | 0.00 | 91 | 1018.8 |
| 20260906062300 | 21 | 107 | 1.6 | 3.2 | 0.00 | 0.00 | 0.00 | 91 | 1018.9 |
| 20260906062201 | 21 | 117 | 0.0 | 3.2 | 0.00 | 0.00 | 0.00 | 91 | 1018.9 |
| 20260906062101 | 21 | 117 | 0.0 | 3.2 | 0.00 | 0.00 | 0.00 | 91 | 1018.9 |
| 20260906062000 | 21 | 83 | 1.6 | 3.2 | 0.00 | 0.00 | 0.00 | 91 | 1018.9 |
| 20260906061801 | 21 | 82 | 0.0 | 3.2 | 0.00 | 0.00 | 0.00 | 91 | 1018.9 |
| 20260906061702 | 21 | 82 | 0.0 | 3.2 | 0.00 | 0.00 | 0.00 | 91 | 1018.9 |
| 20260906061500 | 21 | 82 | 3.2 | 3.2 | 0.00 | 0.00 | 0.00 | 91 | 1018.9 |
| 20260906061300 | 21 | 61 | 0.0 | 1.6 | 0.00 | 0.00 | 0.00 | 91 | 1018.9 |
| 20260906061202 | 21 | 80 | 0.0 | 1.6 | 0.00 | 0.00 | 0.00 | 91 | 1019.0 |
| 20260906061102 | 21 | 233 | 0.0 | 1.6 | 0.00 | 0.00 | 0.00 | 91 | 1018.9 |
| 20260906060901 | 21 | 132 | 0.0 | 1.6 | 0.00 | 0.00 | 0.00 | 91 | 1018.8 |
| 20260906060700 | 21 | 30 | 0.0 | 1.6 | 0.00 | 0.00 | 0.00 | 91 | 1018.9 |
| 20260906060603 | 21 | 30 | 0.0 | 1.6 | 0.00 | 0.00 | 0.00 | 91 | 1018.9 |
| 20260906060501 | 21 | 86 | 0.0 | 1.6 | 0.00 | 0.00 | 0.00 | 91 | 1018.9 |
| 20260906060402 | 21 | 83 | 0.0 | 1.6 | 0.00 | 0.00 | 0.00 | 91 | 1018.9 |
| 20260906060200 | 21 | 113 | 0.0 | 1.6 | 0.00 | 0.00 | 0.00 | 91 | 1018.9 |
| 20260906060059 | 21 | 113 | 0.0 | 1.6 | 0.00 | 0.00 | 0.00 | 91 | 1018.9 |
| 20260906055902 | 21 | 190 | 0.0 | 1.6 | 0.00 | 0.00 | 0.00 | 90 | 1018.9 |
| 20260906055802 | 21 | 190 | 0.0 | 1.6 | 0.00 | 0.00 | 0.00 | 90 | 1018.9 |
| 20260906055703 | 21 | 103 | 0.0 | 1.6 | 0.00 | 0.00 | 0.00 | 90 | 1018.9 |
| 20260906055602 | 21 | 103 | 0.0 | 1.6 | 0.00 | 0.00 | 0.00 | 90 | 1018.9 |
| 20260906055502 | 21 | 104 | 0.0 | 1.6 | 0.00 | 0.00 | 0.00 | 90 | 1018.9 |
| 20260906055306 | 21 | 104 | 0.0 | 1.6 | 0.00 | 0.00 | 0.00 | 90 | 1018.8 |
| 20260906055202 | 21 | 105 | 0.0 | 1.6 | 0.00 | 0.00 | 0.00 | 90 | 1018.8 |
| 20260906055102 | 21 | 120 | 0.0 | 1.6 | 0.00 | 0.00 | 0.00 | 90 | 1018.8 |
| 20260906055003 | 21 | 87 | 0.0 | 3.2 | 0.00 | 0.00 | 0.00 | 90 | 1018.8 |
| 20260906054902 | 21 | 89 | 0.0 | 3.2 | 0.00 | 0.00 | 0.00 | 90 | 1018.7 |
| 20260906054802 | 21 | 84 | 0.0 | 3.2 | 0.00 | 0.00 | 0.00 | 90 | 1018.8 |
| 20260906054602 | 21 | 70 | 0.0 | 3.2 | 0.00 | 0.00 | 0.00 | 90 | 1018.7 |
| 20260906054402 | 21 | 94 | 0.0 | 3.2 | 0.00 | 0.00 | 0.00 | 90 | 1018.7 |
| 20260906054303 | 21 | 94 | 0.0 | 3.2 | 0.00 | 0.00 | 0.00 | 90 | 1018.6 |
| 20260906054203 | 21 | 121 | 0.0 | 3.2 | 0.00 | 0.00 | 0.00 | 90 | 1018.6 |
| 20260906054102 | 21 | 220 | 0.0 | 3.2 | 0.00 | 0.00 | 0.00 | 90 | 1018.6 |
| 20260906054002 | 21 | 33 | 0.0 | 4.8 | 0.00 | 0.00 | 0.00 | 90 | 1018.6 |
| 20260906053802 | 21 | 99 | 3.2 | 4.8 | 0.00 | 0.00 | 0.00 | 90 | 1018.5 |
| 20260906053702 | 21 | 156 | 0.0 | 4.8 | 0.00 | 0.00 | 0.00 | 90 | 1018.6 |
| 20260906053603 | 21 | 205 | 0.0 | 4.8 | 0.00 | 0.00 | 0.00 | 90 | 1018.6 |
| 20260906053502 | 21 | 162 | 0.0 | 4.8 | 0.00 | 0.00 | 0.00 | 90 | 1018.6 |
| 20260906053402 | 21 | 163 | 0.0 | 4.8 | 0.00 | 0.00 | 0.00 | 90 | 1018.6 |
| 20260906053302 | 21 | 41 | 0.0 | 4.8 | 0.00 | 0.00 | 0.00 | 90 | 1018.6 |
| 20260906053202 | 21 | 150 | 0.0 | 4.8 | 0.00 | 0.00 | 0.00 | 90 | 1018.6 |
| 20260906053102 | 21 | 340 | 1.6 | 1.6 | 0.00 | 0.00 | 0.00 | 90 | 1018.6 |
| 20260906053003 | 21 | 32 | 0.0 | 3.2 | 0.00 | 0.00 | 0.00 | 90 | 1018.7 |
| 20260906052905 | 21 | 32 | 0.0 | 3.2 | 0.00 | 0.00 | 0.00 | 90 | 1018.7 |
| 20260906052803 | 21 | 32 | 0.0 | 3.2 | 0.00 | 0.00 | 0.00 | 89 | 1018.7 |
| 20260906052703 | 21 | 32 | 0.0 | 3.2 | 0.00 | 0.00 | 0.00 | 89 | 1018.7 |
| 20260906052602 | 21 | 103 | 0.0 | 3.2 | 0.00 | 0.00 | 0.00 | 90 | 1018.7 |
| 20260906052305 | 21 | 102 | 0.0 | 6.4 | 0.00 | 0.00 | 0.00 | 89 | 1018.7 |
| 20260906052203 | 21 | 102 | 0.0 | 6.4 | 0.00 | 0.00 | 0.00 | 89 | 1018.7 |
| 20260906052102 | 21 | 155 | 1.6 | 6.4 | 0.00 | 0.00 | 0.00 | 89 | 1018.6 |
| 20260906052002 | 21 | 41 | 0.0 | 6.4 | 0.00 | 0.00 | 0.00 | 89 | 1018.7 |
| 20260906051903 | 21 | 86 | 0.0 | 6.4 | 0.00 | 0.00 | 0.00 | 89 | 1018.7 |
| 20260906051702 | 21 | 77 | 0.0 | 6.4 | 0.00 | 0.00 | 0.00 | 89 | 1018.6 |
| 20260906051603 | 21 | 359 | 3.2 | 6.4 | 0.00 | 0.00 | 0.00 | 89 | 1018.6 |
| 20260906051503 | 21 | 107 | 6.4 | 6.4 | 0.00 | 0.00 | 0.00 | 89 | 1018.6 |
| 20260906051402 | 21 | 94 | 0.0 | 4.8 | 0.00 | 0.00 | 0.00 | 89 | 1018.6 |
| 20260906051303 | 21 | 95 | 0.0 | 4.8 | 0.00 | 0.00 | 0.00 | 89 | 1018.6 |
| 20260906051202 | 21 | 96 | 1.6 | 4.8 | 0.00 | 0.00 | 0.00 | 89 | 1018.5 |
| 20260906051102 | 21 | 342 | 0.0 | 4.8 | 0.00 | 0.00 | 0.00 | 89 | 1018.5 |
| 20260906050902 | 21 | 75 | 0.0 | 4.8 | 0.00 | 0.00 | 0.00 | 89 | 1018.5 |
| 20260906050802 | 21 | 68 | 0.0 | 4.8 | 0.00 | 0.00 | 0.00 | 89 | 1018.4 |
| 20260906050703 | 21 | 29 | 0.0 | 4.8 | 0.00 | 0.00 | 0.00 | 89 | 1018.4 |
| 20260906050403 | 21 | 98 | 0.0 | 3.2 | 0.00 | 0.00 | 0.00 | 88 | 1018.3 |
| 20260906050203 | 21 | 100 | 0.0 | 3.2 | 0.00 | 0.00 | 0.00 | 88 | 1018.3 |
| 20260906050004 | 21 | 41 | 0.0 | 3.2 | 0.00 | 0.00 | 0.00 | 88 | 1018.3 |
| 20260906045903 | 21 | 39 | 0.0 | 3.2 | 0.00 | 0.00 | 0.00 | 88 | 1018.3 |
| 20260906045804 | 21 | 15 | 3.2 | 3.2 | 0.00 | 0.00 | 0.00 | 88 | 1018.2 |
| 20260906045704 | 21 | 8 | 0.0 | 3.2 | 0.00 | 0.00 | 0.00 | 88 | 1018.2 |
| 20260906045603 | 21 | 24 | 0.0 | 3.2 | 0.00 | 0.00 | 0.00 | 88 | 1018.3 |
| 20260906045403 | 22 | 155 | 1.6 | 3.2 | 0.00 | 0.00 | 0.00 | 88 | 1018.2 |
| 20260906045202 | 22 | 86 | 0.0 | 3.2 | 0.00 | 0.00 | 0.00 | 88 | 1018.1 |
| 20260906045103 | 22 | 122 | 0.0 | 3.2 | 0.00 | 0.00 | 0.00 | 88 | 1018.2 |
| 20260906045002 | 22 | 123 | 0.0 | 3.2 | 0.00 | 0.00 | 0.00 | 88 | 1018.2 |
| 20260906044903 | 22 | 217 | 0.0 | 3.2 | 0.00 | 0.00 | 0.00 | 88 | 1018.2 |
| 20260906044802 | 22 | 72 | 0.0 | 3.2 | 0.00 | 0.00 | 0.00 | 87 | 1018.1 |
| 20260906044702 | 22 | 72 | 0.0 | 3.2 | 0.00 | 0.00 | 0.00 | 87 | 1018.2 |
| 20260906044603 | 22 | 83 | 1.6 | 3.2 | 0.00 | 0.00 | 0.00 | 87 | 1018.3 |
| 20260906044502 | 22 | 195 | 0.0 | 3.2 | 0.00 | 0.00 | 0.00 | 87 | 1018.2 |
| 20260906044402 | 22 | 154 | 0.0 | 4.8 | 0.00 | 0.00 | 0.00 | 87 | 1018.2 |
| 20260906044302 | 22 | 1 | 0.0 | 4.8 | 0.00 | 0.00 | 0.00 | 87 | 1018.3 |
| 20260906044202 | 22 | 4 | 0.0 | 4.8 | 0.00 | 0.00 | 0.00 | 87 | 1018.2 |
| 20260906044103 | 22 | 5 | 0.0 | 6.4 | 0.00 | 0.00 | 0.00 | 87 | 1018.3 |
| 20260906044003 | 22 | 3 | 0.0 | 6.4 | 0.00 | 0.00 | 0.00 | 87 | 1018.3 |
| 20260906043902 | 22 | 18 | 0.0 | 6.4 | 0.00 | 0.00 | 0.00 | 87 | 1018.3 |
| 20260906043803 | 22 | 19 | 0.0 | 6.4 | 0.00 | 0.00 | 0.00 | 87 | 1018.2 |
| 20260906043603 | 22 | 112 | 0.0 | 6.4 | 0.00 | 0.00 | 0.00 | 87 | 1018.2 |
| 20260906043502 | 22 | 144 | 1.6 | 6.4 | 0.00 | 0.00 | 0.00 | 87 | 1018.2 |
| 20260906043402 | 22 | 338 | 0.0 | 6.4 | 0.00 | 0.00 | 0.00 | 87 | 1018.1 |
| 20260906043202 | 22 | 110 | 0.0 | 6.4 | 0.00 | 0.00 | 0.00 | 87 | 1018.2 |
| 20260906043004 | 22 | 83 | 0.0 | 3.2 | 0.00 | 0.00 | 0.00 | 87 | 1018.1 |
| 20260906042902 | 22 | 32 | 1.6 | 3.2 | 0.00 | 0.00 | 0.00 | 87 | 1018.1 |
| 20260906042803 | 22 | 333 | 0.0 | 4.8 | 0.00 | 0.00 | 0.00 | 87 | 1018.1 |
| 20260906042703 | 22 | 51 | 0.0 | 6.4 | 0.00 | 0.00 | 0.00 | 87 | 1018.1 |
| 20260906042602 | 22 | 51 | 0.0 | 6.4 | 0.00 | 0.00 | 0.00 | 86 | 1018.1 |
| 20260906042502 | 22 | 86 | 0.0 | 6.4 | 0.00 | 0.00 | 0.00 | 86 | 1018.0 |
| 20260906042403 | 22 | 79 | 3.2 | 6.4 | 0.00 | 0.00 | 0.00 | 86 | 1018.1 |
| 20260906042306 | 22 | 195 | 0.0 | 6.4 | 0.00 | 0.00 | 0.00 | 86 | 1018.0 |
| 20260906042202 | 22 | 122 | 0.0 | 6.4 | 0.00 | 0.00 | 0.00 | 86 | 1018.0 |
| 20260906042102 | 22 | 84 | 0.0 | 6.4 | 0.00 | 0.00 | 0.00 | 86 | 1018.0 |
| 20260906041902 | 22 | 91 | 4.8 | 6.4 | 0.00 | 0.00 | 0.00 | 86 | 1018.0 |
| 20260906041702 | 22 | 71 | 1.6 | 6.4 | 0.00 | 0.00 | 0.00 | 86 | 1017.9 |
| 20260906041603 | 22 | 115 | 1.6 | 4.8 | 0.00 | 0.00 | 0.00 | 86 | 1017.9 |
| 20260906041504 | 22 | 105 | 3.2 | 4.8 | 0.00 | 0.00 | 0.00 | 86 | 1018.0 |
| 20260906041403 | 22 | 326 | 0.0 | 4.8 | 0.00 | 0.00 | 0.00 | 86 | 1017.9 |
| 20260906041302 | 22 | 131 | 1.6 | 4.8 | 0.00 | 0.00 | 0.00 | 86 | 1018.0 |
| 20260906041203 | 22 | 72 | 3.2 | 4.8 | 0.00 | 0.00 | 0.00 | 86 | 1017.9 |
| 20260906041102 | 22 | 94 | 3.2 | 4.8 | 0.00 | 0.00 | 0.00 | 86 | 1018.0 |
| 20260906040903 | 22 | 82 | 0.0 | 4.8 | 0.00 | 0.00 | 0.00 | 86 | 1017.9 |
| 20260906040702 | 22 | 94 | 4.8 | 4.8 | 0.00 | 0.00 | 0.00 | 86 | 1018.0 |
| 20260906040603 | 22 | 72 | 0.0 | 4.8 | 0.00 | 0.00 | 0.00 | 86 | 1017.9 |
| 20260906040503 | 22 | 86 | 3.2 | 6.4 | 0.00 | 0.00 | 0.00 | 86 | 1018.0 |
| 20260906040402 | 22 | 157 | 0.0 | 6.4 | 0.00 | 0.00 | 0.00 | 86 | 1017.9 |
| 20260906040302 | 22 | 43 | 1.6 | 6.4 | 0.00 | 0.00 | 0.00 | 86 | 1018.0 |
| 20260906040202 | 22 | 13 | 0.0 | 9.7 | 0.00 | 0.00 | 0.00 | 86 | 1017.9 |
| 20260906040004 | 22 | 91 | 3.2 | 9.7 | 0.00 | 0.00 | 0.00 | 85 | 1018.0 |
| 20260906035902 | 22 | 348 | 1.6 | 9.7 | 0.00 | 0.00 | 0.00 | 85 | 1017.9 |
| 20260906035703 | 22 | 108 | 4.8 | 9.7 | 0.00 | 0.00 | 0.00 | 85 | 1017.9 |
| 20260906035503 | 22 | 64 | 0.0 | 9.7 | 0.00 | 0.00 | 0.00 | 85 | 1017.8 |
| 20260906035403 | 22 | 138 | 3.2 | 9.7 | 0.00 | 0.00 | 0.00 | 85 | 1017.7 |
| 20260906035305 | 22 | 96 | 4.8 | 9.7 | 0.00 | 0.00 | 0.00 | 85 | 1017.8 |
| 20260906035202 | 22 | 103 | 4.8 | 9.7 | 0.00 | 0.00 | 0.00 | 85 | 1017.7 |
| 20260906035102 | 22 | 136 | 3.2 | 9.7 | 0.00 | 0.00 | 0.00 | 85 | 1017.7 |
| 20260906035003 | 22 | 70 | 4.8 | 9.7 | 0.00 | 0.00 | 0.00 | 85 | 1017.7 |
| 20260906034502 | 22 | 103 | 8.0 | 9.7 | 0.00 | 0.00 | 0.00 | 85 | 1017.7 |
| 20260906034402 | 22 | 98 | 4.8 | 12.9 | 0.00 | 0.00 | 0.00 | 85 | 1017.6 |
| 20260906034303 | 22 | 103 | 0.0 | 12.9 | 0.00 | 0.00 | 0.00 | 85 | 1017.6 |
| 20260906034102 | 22 | 89 | 4.8 | 12.9 | 0.00 | 0.00 | 0.00 | 85 | 1017.7 |
| 20260906034003 | 22 | 87 | 1.6 | 12.9 | 0.00 | 0.00 | 0.00 | 85 | 1017.7 |
| 20260906033902 | 22 | 75 | 0.0 | 12.9 | 0.00 | 0.00 | 0.00 | 85 | 1017.7 |
| 20260906033502 | 22 | 86 | 3.2 | 12.9 | 0.00 | 0.00 | 0.00 | 85 | 1017.7 |
| 20260906033402 | 22 | 67 | 6.4 | 12.9 | 0.00 | 0.00 | 0.00 | 85 | 1017.6 |
| 20260906033302 | 22 | 81 | 6.4 | 12.9 | 0.00 | 0.00 | 0.00 | 85 | 1017.6 |
| 20260906033202 | 22 | 89 | 6.4 | 12.9 | 0.00 | 0.00 | 0.00 | 85 | 1017.7 |
| 20260906033102 | 22 | 104 | 6.4 | 12.9 | 0.00 | 0.00 | 0.00 | 85 | 1017.7 |
| 20260906033004 | 22 | 80 | 6.4 | 12.9 | 0.00 | 0.00 | 0.00 | 85 | 1017.7 |
| 20260906032903 | 22 | 51 | 6.4 | 12.9 | 0.00 | 0.00 | 0.00 | 84 | 1017.8 |
| 20260906032802 | 22 | 110 | 9.7 | 12.9 | 0.00 | 0.00 | 0.00 | 84 | 1017.8 |
| 20260906032703 | 22 | 73 | 4.8 | 12.9 | 0.00 | 0.00 | 0.00 | 84 | 1017.8 |
| 20260906032602 | 22 | 115 | 9.7 | 12.9 | 0.00 | 0.00 | 0.00 | 84 | 1017.8 |
| 20260906032504 | 22 | 79 | 4.8 | 12.9 | 0.00 | 0.00 | 0.00 | 84 | 1017.8 |
| 20260906032406 | 22 | 125 | 6.4 | 12.9 | 0.00 | 0.00 | 0.00 | 84 | 1017.8 |
| 20260906032306 | 22 | 97 | 4.8 | 12.9 | 0.00 | 0.00 | 0.00 | 84 | 1017.8 |
| 20260906032204 | 22 | 144 | 4.8 | 12.9 | 0.00 | 0.00 | 0.00 | 84 | 1017.8 |
| 20260906032102 | 22 | 84 | 3.2 | 12.9 | 0.00 | 0.00 | 0.00 | 84 | 1017.8 |
| 20260906032003 | 22 | 126 | 3.2 | 12.9 | 0.00 | 0.00 | 0.00 | 84 | 1017.7 |
| 20260906031902 | 22 | 67 | 8.0 | 12.9 | 0.00 | 0.00 | 0.00 | 84 | 1017.7 |
| 20260906031802 | 22 | 124 | 1.6 | 12.9 | 0.00 | 0.00 | 0.00 | 84 | 1017.7 |
| 20260906031703 | 22 | 67 | 4.8 | 12.9 | 0.00 | 0.00 | 0.00 | 84 | 1017.7 |
| 20260906031602 | 22 | 70 | 4.8 | 12.9 | 0.00 | 0.00 | 0.00 | 84 | 1017.7 |
| 20260906031503 | 22 | 98 | 4.8 | 12.9 | 0.00 | 0.00 | 0.00 | 84 | 1017.6 |
| 20260906031302 | 22 | 103 | 3.2 | 12.9 | 0.00 | 0.00 | 0.00 | 84 | 1017.6 |
| 20260906031202 | 22 | 141 | 3.2 | 11.3 | 0.00 | 0.00 | 0.00 | 84 | 1017.6 |
| 20260906031104 | 22 | 77 | 8.0 | 11.3 | 0.00 | 0.00 | 0.00 | 84 | 1017.6 |
| 20260906031002 | 22 | 105 | 6.4 | 11.3 | 0.00 | 0.00 | 0.00 | 85 | 1017.6 |
| 20260906030902 | 22 | 150 | 4.8 | 11.3 | 0.00 | 0.00 | 0.00 | 85 | 1017.6 |
| 20260906030802 | 22 | 122 | 0.0 | 14.5 | 0.00 | 0.00 | 0.00 | 85 | 1017.6 |
| 20260906030703 | 22 | 85 | 3.2 | 14.5 | 0.00 | 0.00 | 0.00 | 84 | 1017.6 |
| 20260906030602 | 22 | 79 | 6.4 | 14.5 | 0.00 | 0.00 | 0.00 | 85 | 1017.7 |
| 20260906030502 | 22 | 67 | 6.4 | 14.5 | 0.00 | 0.00 | 0.00 | 85 | 1017.7 |
| 20260906030402 | 22 | 83 | 4.8 | 14.5 | 0.00 | 0.00 | 0.00 | 84 | 1017.7 |
| 20260906030304 | 22 | 47 | 4.8 | 14.5 | 0.00 | 0.00 | 0.00 | 84 | 1017.7 |
| 20260906030204 | 22 | 62 | 4.8 | 14.5 | 0.00 | 0.00 | 0.00 | 84 | 1017.7 |
| 20260906030004 | 22 | 72 | 3.2 | 14.5 | 0.00 | 0.00 | 0.00 | 84 | 1017.6 |
| 20260906025902 | 22 | 167 | 9.7 | 14.5 | 0.00 | 0.00 | 0.00 | 84 | 1017.6 |
| 20260906025802 | 22 | 110 | 6.4 | 14.5 | 0.00 | 0.00 | 0.00 | 84 | 1017.7 |
| 20260906025703 | 22 | 136 | 1.6 | 14.5 | 0.00 | 0.00 | 0.00 | 85 | 1017.6 |
| 20260906025604 | 22 | 118 | 3.2 | 14.5 | 0.00 | 0.00 | 0.00 | 85 | 1017.6 |
| 20260906025403 | 22 | 68 | 6.4 | 14.5 | 0.00 | 0.00 | 0.00 | 85 | 1017.7 |
| 20260906025002 | 22 | 128 | 3.2 | 11.3 | 0.00 | 0.00 | 0.00 | 85 | 1017.6 |
| 20260906024802 | 22 | 161 | 4.8 | 11.3 | 0.00 | 0.00 | 0.00 | 84 | 1017.6 |
| 20260906024702 | 22 | 74 | 8.0 | 11.3 | 0.00 | 0.00 | 0.00 | 84 | 1017.6 |
| 20260906024602 | 22 | 110 | 1.6 | 9.7 | 0.00 | 0.00 | 0.00 | 84 | 1017.6 |
| 20260906024402 | 22 | 87 | 4.8 | 9.7 | 0.00 | 0.00 | 0.00 | 84 | 1017.7 |
| 20260906024303 | 22 | 71 | 4.8 | 9.7 | 0.00 | 0.00 | 0.00 | 84 | 1017.7 |
| 20260906024202 | 22 | 68 | 6.4 | 9.7 | 0.00 | 0.00 | 0.00 | 84 | 1017.7 |
| 20260906024102 | 22 | 103 | 3.2 | 9.7 | 0.00 | 0.00 | 0.00 | 84 | 1017.7 |
| 20260906024002 | 22 | 86 | 6.4 | 9.7 | 0.00 | 0.00 | 0.00 | 84 | 1017.7 |
| 20260906023902 | 22 | 72 | 9.7 | 9.7 | 0.00 | 0.00 | 0.00 | 84 | 1017.7 |
| 20260906023802 | 22 | 119 | 1.6 | 9.7 | 0.00 | 0.00 | 0.00 | 84 | 1017.7 |
| 20260906023703 | 22 | 72 | 4.8 | 11.3 | 0.00 | 0.00 | 0.00 | 84 | 1017.7 |
| 20260906023602 | 22 | 96 | 0.0 | 11.3 | 0.00 | 0.00 | 0.00 | 84 | 1017.7 |
| 20260906023504 | 22 | 80 | 4.8 | 11.3 | 0.00 | 0.00 | 0.00 | 84 | 1017.7 |
| 20260906023401 | 22 | 134 | 1.6 | 11.3 | 0.00 | 0.00 | 0.00 | 84 | 1017.6 |
| 20260906023202 | 22 | 114 | 1.6 | 11.3 | 0.00 | 0.00 | 0.00 | 84 | 1017.7 |
| 20260906023102 | 22 | 103 | 6.4 | 11.3 | 0.00 | 0.00 | 0.00 | 84 | 1017.6 |
| 20260906022902 | 22 | 98 | 1.6 | 11.3 | 0.00 | 0.00 | 0.00 | 84 | 1017.5 |
| 20260906022802 | 22 | 82 | 6.4 | 11.3 | 0.00 | 0.00 | 0.00 | 84 | 1017.5 |
| 20260906022602 | 22 | 82 | 4.8 | 11.3 | 0.00 | 0.00 | 0.00 | 84 | 1017.5 |
| 20260906022503 | 22 | 110 | 1.6 | 11.3 | 0.00 | 0.00 | 0.00 | 84 | 1017.6 |
| 20260906022403 | 22 | 104 | 4.8 | 11.3 | 0.00 | 0.00 | 0.00 | 84 | 1017.5 |
| 20260906022307 | 22 | 82 | 8.0 | 11.3 | 0.00 | 0.00 | 0.00 | 84 | 1017.6 |
| 20260906022203 | 22 | 91 | 4.8 | 19.3 | 0.00 | 0.00 | 0.00 | 84 | 1017.6 |
| 20260906022102 | 22 | 134 | 1.6 | 19.3 | 0.00 | 0.00 | 0.00 | 84 | 1017.5 |
| 20260906022003 | 22 | 134 | 0.0 | 19.3 | 0.00 | 0.00 | 0.00 | 84 | 1017.5 |
| 20260906021902 | 22 | 101 | 11.3 | 19.3 | 0.00 | 0.00 | 0.00 | 84 | 1017.6 |
| 20260906021802 | 22 | 105 | 4.8 | 19.3 | 0.00 | 0.00 | 0.00 | 84 | 1017.6 |
| 20260906021702 | 22 | 99 | 6.4 | 19.3 | 0.00 | 0.00 | 0.00 | 84 | 1017.6 |
| 20260906021602 | 22 | 69 | 9.7 | 19.3 | 0.00 | 0.00 | 0.00 | 84 | 1017.6 |
| 20260906021402 | 22 | 118 | 1.6 | 19.3 | 0.00 | 0.00 | 0.00 | 84 | 1017.5 |
| 20260906021102 | 22 | 89 | 6.4 | 14.5 | 0.00 | 0.00 | 0.00 | 84 | 1017.5 |
| 20260906021002 | 22 | 94 | 4.8 | 14.5 | 0.00 | 0.00 | 0.00 | 84 | 1017.5 |
| 20260906020903 | 22 | 123 | 4.8 | 11.3 | 0.00 | 0.00 | 0.00 | 85 | 1017.6 |
| 20260906020802 | 22 | 119 | 4.8 | 12.9 | 0.00 | 0.00 | 0.00 | 85 | 1017.5 |
| 20260906020703 | 22 | 132 | 3.2 | 12.9 | 0.00 | 0.00 | 0.00 | 85 | 1017.5 |
| 20260906020602 | 22 | 288 | 1.6 | 12.9 | 0.00 | 0.00 | 0.00 | 84 | 1017.4 |
| 20260906020504 | 22 | 158 | 0.0 | 12.9 | 0.00 | 0.00 | 0.00 | 84 | 1017.5 |
| 20260906020402 | 22 | 231 | 0.0 | 12.9 | 0.00 | 0.00 | 0.00 | 84 | 1017.5 |
| 20260906020302 | 22 | 101 | 3.2 | 12.9 | 0.00 | 0.00 | 0.00 | 84 | 1017.5 |
| 20260906020202 | 22 | 191 | 4.8 | 12.9 | 0.00 | 0.00 | 0.00 | 84 | 1017.5 |
| 20260906020005 | 22 | 105 | 9.7 | 9.7 | 0.00 | 0.00 | 0.00 | 84 | 1017.5 |
| 20260906015802 | 22 | 86 | 0.0 | 12.9 | 0.00 | 0.00 | 0.00 | 84 | 1017.4 |
| 20260906015703 | 22 | 14 | 4.8 | 12.9 | 0.00 | 0.00 | 0.00 | 84 | 1017.5 |
| 20260906015602 | 22 | 89 | 1.6 | 12.9 | 0.00 | 0.00 | 0.00 | 84 | 1017.4 |
| 20260906015502 | 22 | 115 | 1.6 | 12.9 | 0.00 | 0.00 | 0.00 | 84 | 1017.5 |
| 20260906015403 | 22 | 89 | 3.2 | 12.9 | 0.00 | 0.00 | 0.00 | 84 | 1017.4 |
| 20260906015306 | 22 | 146 | 4.8 | 12.9 | 0.00 | 0.00 | 0.00 | 84 | 1017.4 |
| 20260906015202 | 22 | 105 | 4.8 | 12.9 | 0.00 | 0.00 | 0.00 | 84 | 1017.4 |
| 20260906015004 | 22 | 63 | 6.4 | 12.9 | 0.00 | 0.00 | 0.00 | 84 | 1017.4 |
| 20260906014902 | 22 | 95 | 6.4 | 12.9 | 0.00 | 0.00 | 0.00 | 84 | 1017.5 |
| 20260906014804 | 22 | 91 | 4.8 | 9.7 | 0.00 | 0.00 | 0.00 | 84 | 1017.5 |
| 20260906014602 | 22 | 102 | 0.0 | 8.0 | 0.00 | 0.00 | 0.00 | 84 | 1017.5 |
| 20260906014502 | 22 | 271 | 0.0 | 6.4 | 0.00 | 0.00 | 0.00 | 85 | 1017.5 |
| 20260906014402 | 22 | 122 | 1.6 | 6.4 | 0.00 | 0.00 | 0.00 | 85 | 1017.5 |
| 20260906014102 | 22 | 142 | 1.6 | 12.9 | 0.00 | 0.00 | 0.00 | 85 | 1017.5 |
| 20260906014002 | 22 | 93 | 0.0 | 12.9 | 0.00 | 0.00 | 0.00 | 85 | 1017.5 |
| 20260906013902 | 22 | 113 | 1.6 | 12.9 | 0.00 | 0.00 | 0.00 | 85 | 1017.5 |
| 20260906013802 | 22 | 359 | 1.6 | 12.9 | 0.00 | 0.00 | 0.00 | 85 | 1017.5 |
| 20260906013702 | 22 | 134 | 3.2 | 12.9 | 0.00 | 0.00 | 0.00 | 85 | 1017.4 |
| 20260906013402 | 22 | 135 | 3.2 | 12.9 | 0.00 | 0.00 | 0.00 | 85 | 1017.5 |
| 20260906013304 | 22 | 217 | 3.2 | 11.3 | 0.00 | 0.00 | 0.00 | 85 | 1017.5 |
| 20260906013202 | 22 | 133 | 3.2 | 11.3 | 0.00 | 0.00 | 0.00 | 85 | 1017.4 |
| 20260906013002 | 22 | 335 | 1.6 | 11.3 | 0.00 | 0.00 | 0.00 | 85 | 1017.5 |
| 20260906012902 | 22 | 321 | 1.6 | 11.3 | 0.00 | 0.00 | 0.00 | 85 | 1017.4 |
| 20260906012803 | 22 | 151 | 0.0 | 12.9 | 0.00 | 0.00 | 0.00 | 85 | 1017.5 |
| 20260906012703 | 22 | 3 | 1.6 | 12.9 | 0.00 | 0.00 | 0.00 | 85 | 1017.4 |
| 20260906012602 | 22 | 140 | 0.0 | 12.9 | 0.00 | 0.00 | 0.00 | 85 | 1017.4 |
| 20260906012401 | 22 | 90 | 11.3 | 12.9 | 0.00 | 0.00 | 0.00 | 85 | 1017.4 |
| 20260906012306 | 22 | 217 | 1.6 | 12.9 | 0.00 | 0.00 | 0.00 | 85 | 1017.4 |
| 20260906012202 | 22 | 6 | 9.7 | 12.9 | 0.00 | 0.00 | 0.00 | 85 | 1017.5 |
| 20260906012102 | 22 | 141 | 1.6 | 12.9 | 0.00 | 0.00 | 0.00 | 85 | 1017.4 |
| 20260906012003 | 22 | 205 | 0.0 | 16.1 | 0.00 | 0.00 | 0.00 | 85 | 1017.4 |
| 20260906011902 | 22 | 288 | 1.6 | 16.1 | 0.00 | 0.00 | 0.00 | 85 | 1017.4 |
| 20260906011802 | 22 | 7 | 0.0 | 16.1 | 0.00 | 0.00 | 0.00 | 85 | 1017.4 |
| 20260906011704 | 22 | 359 | 3.2 | 16.1 | 0.00 | 0.00 | 0.00 | 85 | 1017.3 |
| 20260906011602 | 22 | 56 | 1.6 | 16.1 | 0.00 | 0.00 | 0.00 | 85 | 1017.5 |
| 20260906011502 | 22 | 88 | 1.6 | 16.1 | 0.00 | 0.00 | 0.00 | 85 | 1017.4 |
| 20260906011403 | 22 | 112 | 8.0 | 16.1 | 0.00 | 0.00 | 0.00 | 85 | 1017.5 |
| 20260906011302 | 22 | 80 | 6.4 | 17.7 | 0.00 | 0.00 | 0.00 | 85 | 1017.4 |
| 20260906011202 | 22 | 74 | 6.4 | 17.7 | 0.00 | 0.00 | 0.00 | 85 | 1017.5 |
| 20260906011102 | 22 | 120 | 3.2 | 17.7 | 0.00 | 0.00 | 0.00 | 85 | 1017.4 |
| 20260906011005 | 22 | 107 | 8.0 | 17.7 | 0.00 | 0.00 | 0.00 | 85 | 1017.4 |
| 20260906010903 | 22 | 106 | 8.0 | 17.7 | 0.00 | 0.00 | 0.00 | 85 | 1017.4 |
| 20260906010802 | 22 | 95 | 1.6 | 17.7 | 0.00 | 0.00 | 0.00 | 85 | 1017.5 |
| 20260906010702 | 22 | 136 | 6.4 | 17.7 | 0.00 | 0.00 | 0.00 | 84 | 1017.5 |
| 20260906010602 | 22 | 73 | 3.2 | 17.7 | 0.00 | 0.00 | 0.00 | 84 | 1017.5 |
| 20260906010502 | 22 | 81 | 9.7 | 17.7 | 0.00 | 0.00 | 0.00 | 84 | 1017.4 |
| 20260906010402 | 22 | 90 | 8.0 | 12.9 | 0.00 | 0.00 | 0.00 | 84 | 1017.5 |
| 20260906010203 | 22 | 140 | 3.2 | 14.5 | 0.00 | 0.00 | 0.00 | 84 | 1017.5 |
| 20260906010004 | 22 | 323 | 3.2 | 14.5 | 0.00 | 0.00 | 0.00 | 84 | 1017.5 |
| 20260906005901 | 22 | 82 | 1.6 | 14.5 | 0.00 | 0.00 | 0.00 | 84 | 1017.4 |
| 20260906005801 | 23 | 115 | 4.8 | 14.5 | 0.00 | 0.00 | 0.00 | 84 | 1017.4 |
| 20260906005701 | 23 | 105 | 3.2 | 14.5 | 0.00 | 0.00 | 0.00 | 84 | 1017.4 |
| 20260906005601 | 23 | 103 | 8.0 | 14.5 | 0.00 | 0.00 | 0.00 | 84 | 1017.4 |
| 20260906005501 | 23 | 35 | 6.4 | 14.5 | 0.00 | 0.00 | 0.00 | 84 | 1017.4 |
| 20260906005301 | 23 | 65 | 4.8 | 14.5 | 0.00 | 0.00 | 0.00 | 84 | 1017.4 |
| 20260906005101 | 23 | 122 | 9.7 | 14.5 | 0.00 | 0.00 | 0.00 | 84 | 1017.4 |
| 20260906005001 | 23 | 100 | 3.2 | 12.9 | 0.00 | 0.00 | 0.00 | 84 | 1017.4 |
| 20260906004901 | 23 | 68 | 9.7 | 12.9 | 0.00 | 0.00 | 0.00 | 84 | 1017.3 |
| 20260906004801 | 23 | 84 | 4.8 | 16.1 | 0.00 | 0.00 | 0.00 | 84 | 1017.3 |
| 20260906004701 | 23 | 160 | 8.0 | 16.1 | 0.00 | 0.00 | 0.00 | 84 | 1017.3 |
| 20260906004601 | 23 | 101 | 8.0 | 16.1 | 0.00 | 0.00 | 0.00 | 83 | 1017.3 |
| 20260906004501 | 23 | 157 | 3.2 | 16.1 | 0.00 | 0.00 | 0.00 | 83 | 1017.3 |
| 20260906004301 | 23 | 103 | 1.6 | 16.1 | 0.00 | 0.00 | 0.00 | 83 | 1017.3 |
| 20260906004201 | 23 | 139 | 0.0 | 16.1 | 0.00 | 0.00 | 0.00 | 83 | 1017.3 |
| 20260906004101 | 23 | 313 | 3.2 | 16.1 | 0.00 | 0.00 | 0.00 | 83 | 1017.3 |
| 20260906003902 | 23 | 91 | 11.3 | 16.1 | 0.00 | 0.00 | 0.00 | 83 | 1017.3 |
| 20260906003801 | 23 | 130 | 6.4 | 16.1 | 0.00 | 0.00 | 0.00 | 83 | 1017.2 |
| 20260906003701 | 23 | 108 | 9.7 | 16.1 | 0.00 | 0.00 | 0.00 | 83 | 1017.3 |
| 20260906003502 | 23 | 50 | 8.0 | 16.1 | 0.00 | 0.00 | 0.00 | 82 | 1017.3 |
| 20260906003401 | 23 | 80 | 14.5 | 16.1 | 0.00 | 0.00 | 0.00 | 82 | 1017.3 |
| 20260906003301 | 23 | 94 | 11.3 | 16.1 | 0.00 | 0.00 | 0.00 | 82 | 1017.3 |
| 20260906003201 | 23 | 77 | 8.0 | 16.1 | 0.00 | 0.00 | 0.00 | 82 | 1017.2 |
| 20260906003102 | 23 | 47 | 9.7 | 14.5 | 0.00 | 0.00 | 0.00 | 82 | 1017.3 |
| 20260906003001 | 24 | 77 | 6.4 | 14.5 | 0.00 | 0.00 | 0.00 | 82 | 1017.3 |
| 20260906002901 | 24 | 80 | 1.6 | 14.5 | 0.00 | 0.00 | 0.00 | 82 | 1017.3 |
| 20260906002802 | 24 | 146 | 1.6 | 14.5 | 0.00 | 0.00 | 0.00 | 82 | 1017.1 |
| 20260906002701 | 24 | 127 | 4.8 | 14.5 | 0.00 | 0.00 | 0.00 | 82 | 1017.1 |
| 20260906002601 | 24 | 91 | 11.3 | 11.3 | 0.00 | 0.00 | 0.00 | 82 | 1017.1 |
| 20260906002401 | 24 | 88 | 6.4 | 11.3 | 0.00 | 0.00 | 0.00 | 82 | 1017.1 |
| 20260906002301 | 24 | 137 | 3.2 | 11.3 | 0.00 | 0.00 | 0.00 | 82 | 1017.1 |
| 20260906002202 | 24 | 93 | 9.7 | 11.3 | 0.00 | 0.00 | 0.00 | 82 | 1017.0 |
| 20260906002102 | 24 | 68 | 3.2 | 11.3 | 0.00 | 0.00 | 0.00 | 82 | 1017.0 |
| 20260906001901 | 24 | 182 | 0.0 | 11.3 | 0.00 | 0.00 | 0.00 | 82 | 1016.9 |
| 20260906001802 | 24 | 108 | 1.6 | 12.9 | 0.00 | 0.00 | 0.00 | 82 | 1017.0 |
| 20260906001701 | 24 | 108 | 1.6 | 12.9 | 0.00 | 0.00 | 0.00 | 81 | 1016.9 |
| 20260906001502 | 24 | 112 | 4.8 | 12.9 | 0.00 | 0.00 | 0.00 | 81 | 1017.0 |
| 20260906001402 | 24 | 195 | 4.8 | 12.9 | 0.00 | 0.00 | 0.00 | 81 | 1016.9 |
| 20260906001302 | 24 | 176 | 4.8 | 14.5 | 0.00 | 0.00 | 0.00 | 81 | 1016.9 |
| 20260906001201 | 24 | 41 | 9.7 | 16.1 | 0.00 | 0.00 | 0.00 | 81 | 1017.0 |
| 20260906001101 | 25 | 108 | 6.4 | 16.1 | 0.00 | 0.00 | 0.00 | 81 | 1016.9 |
| 20260906001002 | 25 | 110 | 12.9 | 16.1 | 0.00 | 0.00 | 0.00 | 81 | 1016.9 |
| 20260906000901 | 25 | 84 | 0.0 | 16.1 | 0.00 | 0.00 | 0.00 | 81 | 1016.9 |
| 20260906000801 | 25 | 167 | 1.6 | 16.1 | 0.00 | 0.00 | 0.00 | 81 | 1017.0 |
| 20260906000701 | 25 | 153 | 3.2 | 16.1 | 0.00 | 0.00 | 0.00 | 81 | 1016.9 |
| 20260906000601 | 25 | 127 | 6.4 | 16.1 | 0.00 | 0.00 | 0.00 | 81 | 1016.9 |
| 20260906000502 | 25 | 77 | 0.0 | 16.1 | 0.00 | 0.00 | 0.00 | 81 | 1016.9 |
| 20260906000303 | 25 | 74 | 12.9 | 12.9 | 0.00 | 0.00 | 0.00 | 81 | 1016.8 |
| 20260906000204 | 25 | 144 | 4.8 | 12.9 | 0.00 | 0.00 | 0.00 | 81 | 1016.7 |
| 20260906000001 | 25 | 94 | 3.2 | 12.9 | 0.00 | 0.00 | 0.00 | 81 | 1016.6 |
| 20260905235901 | 25 | 100 | 3.2 | 12.9 | 0.00 | 0.00 | 0.00 | 81 | 1016.6 |
| 20260905235802 | 25 | 69 | 4.8 | 16.1 | 0.00 | 0.00 | 0.00 | 81 | 1016.6 |
| 20260905235701 | 25 | 113 | 0.0 | 16.1 | 0.00 | 0.00 | 0.00 | 81 | 1016.6 |
| 20260905235502 | 25 | 81 | 11.3 | 16.1 | 0.00 | 0.00 | 0.00 | 80 | 1016.6 |
| 20260905235402 | 25 | 86 | 8.0 | 16.1 | 0.00 | 0.00 | 0.00 | 80 | 1016.5 |
| 20260905235300 | 25 | 111 | 8.0 | 16.1 | 0.00 | 0.00 | 0.00 | 80 | 1016.5 |
| 20260905235201 | 25 | 97 | 9.7 | 16.1 | 0.00 | 0.00 | 0.00 | 80 | 1016.5 |
| 20260905235101 | 25 | 110 | 9.7 | 16.1 | 0.00 | 0.00 | 0.00 | 80 | 1016.4 |
| 20260905235001 | 25 | 94 | 11.3 | 16.1 | 0.00 | 0.00 | 0.00 | 80 | 1016.3 |
| 20260905234901 | 25 | 124 | 11.3 | 16.1 | 0.00 | 0.00 | 0.00 | 79 | 1016.4 |
| 20260905234801 | 25 | 58 | 6.4 | 16.1 | 0.00 | 0.00 | 0.00 | 79 | 1016.3 |
| 20260905234701 | 25 | 87 | 6.4 | 16.1 | 0.00 | 0.00 | 0.00 | 79 | 1016.3 |
| 20260905234601 | 25 | 171 | 3.2 | 16.1 | 0.00 | 0.00 | 0.00 | 79 | 1016.3 |
| 20260905234501 | 25 | 71 | 8.0 | 16.1 | 0.00 | 0.00 | 0.00 | 79 | 1016.4 |
| 20260905234401 | 26 | 208 | 1.6 | 16.1 | 0.00 | 0.00 | 0.00 | 79 | 1016.3 |
| 20260905234300 | 26 | 77 | 8.0 | 16.1 | 0.00 | 0.00 | 0.00 | 78 | 1016.3 |
| 20260905234201 | 26 | 75 | 6.4 | 16.1 | 0.00 | 0.00 | 0.00 | 78 | 1016.3 |
| 20260905234101 | 26 | 77 | 16.1 | 16.1 | 0.00 | 0.00 | 0.00 | 78 | 1016.3 |
| 20260905234002 | 26 | 109 | 12.9 | 12.9 | 0.00 | 0.00 | 0.00 | 78 | 1016.2 |
| 20260905233901 | 26 | 53 | 3.2 | 11.3 | 0.00 | 0.00 | 0.00 | 78 | 1016.3 |
| 20260905233801 | 26 | 161 | 1.6 | 11.3 | 0.00 | 0.00 | 0.00 | 78 | 1016.3 |
| 20260905233701 | 26 | 85 | 4.8 | 11.3 | 0.00 | 0.00 | 0.00 | 78 | 1016.3 |
| 20260905233501 | 26 | 109 | 6.4 | 12.9 | 0.00 | 0.00 | 0.00 | 78 | 1016.3 |
| 20260905233401 | 26 | 324 | 3.2 | 12.9 | 0.00 | 0.00 | 0.00 | 78 | 1016.3 |
| 20260905233304 | 26 | 93 | 0.0 | 12.9 | 0.00 | 0.00 | 0.00 | 78 | 1016.2 |
| 20260905233201 | 26 | 125 | 1.6 | 12.9 | 0.00 | 0.00 | 0.00 | 78 | 1016.2 |
| 20260905233101 | 26 | 88 | 1.6 | 12.9 | 0.00 | 0.00 | 0.00 | 78 | 1016.3 |
| 20260905233001 | 26 | 165 | 4.8 | 12.9 | 0.00 | 0.00 | 0.00 | 78 | 1016.3 |
| 20260905232901 | 26 | 101 | 6.4 | 12.9 | 0.00 | 0.00 | 0.00 | 78 | 1016.4 |
| 20260905232801 | 26 | 96 | 8.0 | 12.9 | 0.00 | 0.00 | 0.00 | 78 | 1016.3 |
| 20260905232701 | 26 | 171 | 6.4 | 12.9 | 0.00 | 0.00 | 0.00 | 77 | 1016.3 |
| 20260905232601 | 26 | 82 | 12.9 | 12.9 | 0.00 | 0.00 | 0.00 | 77 | 1016.4 |
| 20260905232501 | 26 | 76 | 1.6 | 9.7 | 0.00 | 0.00 | 0.00 | 77 | 1016.4 |
| 20260905232401 | 26 | 67 | 3.2 | 11.3 | 0.00 | 0.00 | 0.00 | 77 | 1016.4 |
| 20260905232101 | 26 | 89 | 1.6 | 12.9 | 0.00 | 0.00 | 0.00 | 76 | 1016.3 |
| 20260905232001 | 26 | 108 | 0.0 | 12.9 | 0.00 | 0.00 | 0.00 | 76 | 1016.4 |
| 20260905231901 | 26 | 140 | 1.6 | 12.9 | 0.00 | 0.00 | 0.00 | 76 | 1016.4 |
| 20260905231802 | 26 | 139 | 4.8 | 12.9 | 0.00 | 0.00 | 0.00 | 75 | 1016.4 |
| 20260905231601 | 27 | 149 | 4.8 | 12.9 | 0.00 | 0.00 | 0.00 | 75 | 1016.3 |
| 20260905231501 | 27 | 106 | 4.8 | 12.9 | 0.00 | 0.00 | 0.00 | 75 | 1016.4 |
| 20260905231401 | 27 | 112 | 3.2 | 12.9 | 0.00 | 0.00 | 0.00 | 74 | 1016.4 |
| 20260905231301 | 27 | 89 | 8.0 | 12.9 | 0.00 | 0.00 | 0.00 | 73 | 1016.4 |
| 20260905231201 | 27 | 132 | 8.0 | 16.1 | 0.00 | 0.00 | 0.00 | 73 | 1016.3 |
| 20260905231101 | 27 | 152 | 3.2 | 16.1 | 0.00 | 0.00 | 0.00 | 73 | 1016.4 |
| 20260905230901 | 27 | 88 | 3.2 | 16.1 | 0.00 | 0.00 | 0.00 | 73 | 1016.3 |
| 20260905230801 | 27 | 64 | 1.6 | 16.1 | 0.00 | 0.00 | 0.00 | 72 | 1016.3 |
| 20260905230701 | 28 | 117 | 9.7 | 16.1 | 0.00 | 0.00 | 0.00 | 71 | 1016.3 |
| 20260905230601 | 28 | 103 | 11.3 | 16.1 | 0.00 | 0.00 | 0.00 | 71 | 1016.2 |
| 20260905230501 | 28 | 118 | 6.4 | 16.1 | 0.00 | 0.00 | 0.00 | 71 | 1016.3 |
| 20260905230400 | 28 | 112 | 3.2 | 16.1 | 0.00 | 0.00 | 0.00 | 70 | 1016.2 |
| 20260905230301 | 28 | 130 | 6.4 | 16.1 | 0.00 | 0.00 | 0.00 | 70 | 1016.2 |
| 20260905230101 | 28 | 126 | 1.6 | 8.0 | 0.00 | 0.00 | 0.00 | 70 | 1016.1 |
| 20260905230002 | 28 | 312 | 1.6 | 8.0 | 0.00 | 0.00 | 0.00 | 69 | 1016.2 |
| 20260905225901 | 28 | 124 | 4.8 | 8.0 | 0.00 | 0.00 | 0.00 | 70 | 1016.2 |
| 20260905225801 | 28 | 134 | 0.0 | 8.0 | 0.00 | 0.00 | 0.00 | 69 | 1016.1 |
| 20260905225601 | 28 | 115 | 1.6 | 6.4 | 0.00 | 0.00 | 0.00 | 69 | 1016.1 |
| 20260905225501 | 28 | 108 | 1.6 | 6.4 | 0.00 | 0.00 | 0.00 | 69 | 1016.1 |
| 20260905225401 | 28 | 11 | 0.0 | 6.4 | 0.00 | 0.00 | 0.00 | 69 | 1016.0 |
| 20260905225305 | 28 | 11 | 3.2 | 6.4 | 0.00 | 0.00 | 0.00 | 69 | 1016.0 |
| 20260905225201 | 28 | 285 | 1.6 | 6.4 | 0.00 | 0.00 | 0.00 | 68 | 1016.1 |
| 20260905225101 | 28 | 260 | 1.6 | 6.4 | 0.00 | 0.00 | 0.00 | 68 | 1016.0 |
| 20260905225001 | 28 | 32 | 4.8 | 6.4 | 0.00 | 0.00 | 0.00 | 68 | 1016.0 |
| 20260905224901 | 28 | 38 | 0.0 | 4.8 | 0.00 | 0.00 | 0.00 | 68 | 1016.0 |
| 20260905224801 | 28 | 292 | 1.6 | 4.8 | 0.00 | 0.00 | 0.00 | 68 | 1016.0 |
| 20260905224700 | 28 | 146 | 0.0 | 6.4 | 0.00 | 0.00 | 0.00 | 67 | 1016.0 |
| 20260905224601 | 28 | 68 | 3.2 | 8.0 | 0.00 | 0.00 | 0.00 | 68 | 1016.0 |
| 20260905224501 | 28 | 226 | 0.0 | 8.0 | 0.00 | 0.00 | 0.00 | 68 | 1015.9 |
| 20260905224401 | 28 | 354 | 1.6 | 8.0 | 0.00 | 0.00 | 0.00 | 69 | 1016.0 |
| 20260905224301 | 28 | 113 | 0.0 | 8.0 | 0.00 | 0.00 | 0.00 | 69 | 1015.9 |
| 20260905224201 | 28 | 1 | 1.6 | 8.0 | 0.00 | 0.00 | 0.00 | 69 | 1015.9 |
| 20260905224101 | 28 | 99 | 0.0 | 8.0 | 0.00 | 0.00 | 0.00 | 69 | 1015.9 |
| 20260905224001 | 28 | 158 | 0.0 | 9.7 | 0.00 | 0.00 | 0.00 | 68 | 1015.9 |
| 20260905223901 | 28 | 87 | 1.6 | 9.7 | 0.00 | 0.00 | 0.00 | 68 | 1015.9 |
| 20260905223801 | 28 | 74 | 3.2 | 9.7 | 0.00 | 0.00 | 0.00 | 68 | 1015.9 |
| 20260905223701 | 28 | 271 | 3.2 | 9.7 | 0.00 | 0.00 | 0.00 | 68 | 1015.9 |
| 20260905223601 | 28 | 337 | 3.2 | 9.7 | 0.00 | 0.00 | 0.00 | 68 | 1015.8 |
| 20260905223501 | 28 | 19 | 3.2 | 9.7 | 0.00 | 0.00 | 0.00 | 69 | 1015.9 |
| 20260905223402 | 28 | 32 | 1.6 | 9.7 | 0.00 | 0.00 | 0.00 | 68 | 1015.9 |
| 20260905223302 | 28 | 39 | 3.2 | 9.7 | 0.00 | 0.00 | 0.00 | 68 | 1015.8 |
| 20260905223201 | 28 | 7 | 6.4 | 9.7 | 0.00 | 0.00 | 0.00 | 69 | 1015.9 |
| 20260905223101 | 28 | 44 | 1.6 | 9.7 | 0.00 | 0.00 | 0.00 | 68 | 1015.9 |
| 20260905223001 | 28 | 32 | 0.0 | 9.7 | 0.00 | 0.00 | 0.00 | 69 | 1015.8 |
| 20260905222901 | 28 | 214 | 0.0 | 9.7 | 0.00 | 0.00 | 0.00 | 69 | 1015.8 |
| 20260905222801 | 28 | 354 | 3.2 | 9.7 | 0.00 | 0.00 | 0.00 | 69 | 1015.8 |
| 20260905222700 | 28 | 3 | 3.2 | 9.7 | 0.00 | 0.00 | 0.00 | 68 | 1015.8 |
| 20260905222602 | 28 | 33 | 4.8 | 9.7 | 0.00 | 0.00 | 0.00 | 68 | 1015.8 |
| 20260905222501 | 28 | 122 | 8.0 | 9.7 | 0.00 | 0.00 | 0.00 | 69 | 1015.9 |
| 20260905222201 | 28 | 55 | 4.8 | 9.7 | 0.00 | 0.00 | 0.00 | 69 | 1015.9 |
| 20260905222101 | 28 | 331 | 1.6 | 9.7 | 0.00 | 0.00 | 0.00 | 69 | 1015.8 |
| 20260905222001 | 28 | 29 | 3.2 | 9.7 | 0.00 | 0.00 | 0.00 | 69 | 1015.7 |
| 20260905221901 | 28 | 23 | 1.6 | 9.7 | 0.00 | 0.00 | 0.00 | 69 | 1015.8 |
| 20260905221800 | 28 | 107 | 0.0 | 9.7 | 0.00 | 0.00 | 0.00 | 68 | 1015.8 |
| 20260905221702 | 28 | 145 | 0.0 | 9.7 | 0.00 | 0.00 | 0.00 | 69 | 1015.8 |
| 20260905221601 | 28 | 357 | 1.6 | 9.7 | 0.00 | 0.00 | 0.00 | 68 | 1015.7 |
| 20260905221401 | 28 | 48 | 1.6 | 9.7 | 0.00 | 0.00 | 0.00 | 68 | 1015.7 |
| 20260905221301 | 28 | 1 | 6.4 | 9.7 | 0.00 | 0.00 | 0.00 | 69 | 1015.7 |
| 20260905221201 | 28 | 201 | 0.0 | 4.8 | 0.00 | 0.00 | 0.00 | 69 | 1015.7 |
| 20260905221101 | 28 | 295 | 0.0 | 4.8 | 0.00 | 0.00 | 0.00 | 70 | 1015.7 |
| 20260905221001 | 28 | 11 | 1.6 | 4.8 | 0.00 | 0.00 | 0.00 | 71 | 1015.7 |
| 20260905220901 | 28 | 110 | 0.0 | 4.8 | 0.00 | 0.00 | 0.00 | 71 | 1015.7 |
| 20260905220802 | 28 | 30 | 3.2 | 6.4 | 0.00 | 0.00 | 0.00 | 71 | 1015.8 |
| 20260905220701 | 28 | 116 | 4.8 | 6.4 | 0.00 | 0.00 | 0.00 | 71 | 1015.8 |
| 20260905220602 | 28 | 22 | 0.0 | 6.4 | 0.00 | 0.00 | 0.00 | 71 | 1015.9 |
| 20260905220401 | 28 | 308 | 1.6 | 6.4 | 0.00 | 0.00 | 0.00 | 71 | 1015.8 |
| 20260905220301 | 28 | 75 | 0.0 | 6.4 | 0.00 | 0.00 | 0.00 | 71 | 1015.8 |
| 20260905215901 | 28 | 87 | 4.8 | 9.7 | 0.00 | 0.00 | 0.00 | 70 | 1015.8 |
| 20260905215801 | 28 | 23 | 1.6 | 9.7 | 0.00 | 0.00 | 0.00 | 70 | 1015.8 |
| 20260905215501 | 28 | 125 | 0.0 | 12.9 | 0.00 | 0.00 | 0.00 | 70 | 1015.9 |
| 20260905215305 | 28 | 131 | 1.6 | 12.9 | 0.00 | 0.00 | 0.00 | 70 | 1015.9 |
| 20260905215201 | 28 | 122 | 0.0 | 12.9 | 0.00 | 0.00 | 0.00 | 71 | 1015.8 |
| 20260905215101 | 28 | 108 | 4.8 | 12.9 | 0.00 | 0.00 | 0.00 | 70 | 1015.8 |
| 20260905214901 | 28 | 63 | 1.6 | 12.9 | 0.00 | 0.00 | 0.00 | 70 | 1015.9 |
| 20260905214801 | 28 | 138 | 4.8 | 12.9 | 0.00 | 0.00 | 0.00 | 70 | 1015.9 |
| 20260905214701 | 28 | 79 | 12.9 | 12.9 | 0.00 | 0.00 | 0.00 | 70 | 1015.8 |
| 20260905214601 | 28 | 102 | 6.4 | 12.9 | 0.00 | 0.00 | 0.00 | 70 | 1015.8 |
| 20260905214401 | 28 | 114 | 1.6 | 6.4 | 0.00 | 0.00 | 0.00 | 70 | 1015.8 |
| 20260905214301 | 28 | 99 | 1.6 | 6.4 | 0.00 | 0.00 | 0.00 | 71 | 1016.0 |
| 20260905214202 | 28 | 20 | 3.2 | 11.3 | 0.00 | 0.00 | 0.00 | 71 | 1015.9 |
| 20260905214102 | 28 | 110 | 1.6 | 11.3 | 0.00 | 0.00 | 0.00 | 71 | 1015.9 |
| 20260905214001 | 28 | 328 | 4.8 | 11.3 | 0.00 | 0.00 | 0.00 | 71 | 1016.0 |
| 20260905213901 | 28 | 94 | 1.6 | 11.3 | 0.00 | 0.00 | 0.00 | 71 | 1016.0 |
| 20260905213801 | 28 | 356 | 3.2 | 12.9 | 0.00 | 0.00 | 0.00 | 71 | 1016.0 |
| 20260905213701 | 28 | 191 | 0.0 | 12.9 | 0.00 | 0.00 | 0.00 | 72 | 1016.0 |
| 20260905213601 | 28 | 155 | 3.2 | 12.9 | 0.00 | 0.00 | 0.00 | 71 | 1015.9 |
| 20260905213500 | 28 | 105 | 0.0 | 12.9 | 0.00 | 0.00 | 0.00 | 72 | 1015.9 |
| 20260905213302 | 28 | 29 | 0.0 | 12.9 | 0.00 | 0.00 | 0.00 | 72 | 1016.0 |
| 20260905213201 | 28 | 127 | 0.0 | 12.9 | 0.00 | 0.00 | 0.00 | 71 | 1016.0 |
| 20260905213102 | 28 | 187 | 1.6 | 12.9 | 0.00 | 0.00 | 0.00 | 71 | 1016.1 |
| 20260905213001 | 28 | 4 | 4.8 | 12.9 | 0.00 | 0.00 | 0.00 | 70 | 1016.0 |
| 20260905212901 | 28 | 3 | 0.0 | 9.7 | 0.00 | 0.00 | 0.00 | 72 | 1016.0 |
| 20260905212801 | 28 | 356 | 1.6 | 9.7 | 0.00 | 0.00 | 0.00 | 71 | 1015.9 |
| 20260905212400 | 28 | 264 | 1.6 | 8.0 | 0.00 | 0.00 | 0.00 | 72 | 1015.9 |
| 20260905212301 | 28 | 18 | 3.2 | 8.0 | 0.00 | 0.00 | 0.00 | 73 | 1015.9 |
| 20260905212201 | 28 | 41 | 3.2 | 8.0 | 0.00 | 0.00 | 0.00 | 75 | 1015.9 |
| 20260905212101 | 28 | 54 | 0.0 | 8.0 | 0.00 | 0.00 | 0.00 | 75 | 1015.9 |
| 20260905211902 | 28 | 92 | 0.0 | 8.0 | 0.00 | 0.00 | 0.00 | 74 | 1015.9 |
| 20260905211701 | 28 | 311 | 1.6 | 9.7 | 0.00 | 0.00 | 0.00 | 73 | 1015.9 |
| 20260905211600 | 28 | 87 | 6.4 | 12.9 | 0.00 | 0.00 | 0.00 | 73 | 1015.9 |
| 20260905211501 | 28 | 223 | 0.0 | 12.9 | 0.00 | 0.00 | 0.00 | 72 | 1016.0 |
| 20260905211401 | 28 | 145 | 0.0 | 12.9 | 0.00 | 0.00 | 0.00 | 72 | 1015.9 |
| 20260905211301 | 28 | 20 | 3.2 | 12.9 | 0.00 | 0.00 | 0.00 | 72 | 1015.9 |
| 20260905211202 | 28 | 110 | 1.6 | 12.9 | 0.00 | 0.00 | 0.00 | 72 | 1015.9 |
| 20260905211101 | 28 | 313 | 3.2 | 12.9 | 0.00 | 0.00 | 0.00 | 73 | 1016.0 |
| 20260905210901 | 28 | 105 | 3.2 | 12.9 | 0.00 | 0.00 | 0.00 | 71 | 1015.9 |
| 20260905210801 | 28 | 99 | 4.8 | 8.0 | 0.00 | 0.00 | 0.00 | 72 | 1015.9 |
| 20260905210701 | 28 | 142 | 1.6 | 8.0 | 0.00 | 0.00 | 0.00 | 72 | 1015.9 |
| 20260905210602 | 28 | 259 | 1.6 | 8.0 | 0.00 | 0.00 | 0.00 | 72 | 1015.9 |
| 20260905210401 | 28 | 70 | 1.6 | 8.0 | 0.00 | 0.00 | 0.00 | 71 | 1015.9 |
| 20260905210302 | 28 | 358 | 4.8 | 8.0 | 0.00 | 0.00 | 0.00 | 72 | 1015.9 |
| 20260905210202 | 28 | 115 | 0.0 | 8.0 | 0.00 | 0.00 | 0.00 | 72 | 1016.0 |
| 20260905210002 | 28 | 155 | 1.6 | 8.0 | 0.00 | 0.00 | 0.00 | 73 | 1016.1 |
| 20260905205803 | 28 | 127 | 0.0 | 8.0 | 0.00 | 0.00 | 0.00 | 73 | 1016.1 |
| 20260905205702 | 28 | 103 | 1.6 | 8.0 | 0.00 | 0.00 | 0.00 | 73 | 1016.1 |
| 20260905205602 | 28 | 212 | 0.0 | 8.0 | 0.00 | 0.00 | 0.00 | 73 | 1016.2 |
| 20260905205502 | 28 | 136 | 3.2 | 8.0 | 0.00 | 0.00 | 0.00 | 73 | 1016.1 |
| 20260905205402 | 28 | 117 | 3.2 | 8.0 | 0.00 | 0.00 | 0.00 | 72 | 1016.1 |
| 20260905205306 | 28 | 19 | 4.8 | 8.0 | 0.00 | 0.00 | 0.00 | 72 | 1016.2 |
| 20260905205202 | 28 | 356 | 3.2 | 8.0 | 0.00 | 0.00 | 0.00 | 72 | 1016.2 |
| 20260905205101 | 28 | 34 | 3.2 | 8.0 | 0.00 | 0.00 | 0.00 | 72 | 1016.3 |
| 20260905205002 | 28 | 189 | 4.8 | 8.0 | 0.00 | 0.00 | 0.00 | 73 | 1016.3 |
| 20260905204903 | 28 | 21 | 4.8 | 4.8 | 0.00 | 0.00 | 0.00 | 73 | 1016.4 |
| 20260905204802 | 28 | 285 | 1.6 | 4.8 | 0.00 | 0.00 | 0.00 | 74 | 1016.3 |
| 20260905204702 | 28 | 112 | 1.6 | 4.8 | 0.00 | 0.00 | 0.00 | 74 | 1016.3 |
| 20260905204602 | 28 | 350 | 3.2 | 9.7 | 0.00 | 0.00 | 0.00 | 74 | 1016.2 |
| 20260905204503 | 28 | 91 | 1.6 | 9.7 | 0.00 | 0.00 | 0.00 | 73 | 1016.3 |
| 20260905204303 | 27 | 264 | 0.0 | 12.9 | 0.00 | 0.00 | 0.00 | 74 | 1016.3 |
| 20260905204203 | 27 | 329 | 1.6 | 12.9 | 0.00 | 0.00 | 0.00 | 74 | 1016.4 |
| 20260905204102 | 27 | 88 | 3.2 | 12.9 | 0.00 | 0.00 | 0.00 | 74 | 1016.4 |
| 20260905204002 | 27 | 316 | 3.2 | 12.9 | 0.00 | 0.00 | 0.00 | 75 | 1016.4 |
| 20260905203803 | 27 | 70 | 4.8 | 12.9 | 0.00 | 0.00 | 0.00 | 74 | 1016.4 |
| 20260905203702 | 27 | 46 | 9.7 | 12.9 | 0.00 | 0.00 | 0.00 | 74 | 1016.5 |
| 20260905203603 | 27 | 15 | 1.6 | 12.9 | 0.00 | 0.00 | 0.00 | 73 | 1016.5 |
| 20260905203503 | 28 | 27 | 12.9 | 12.9 | 0.00 | 0.00 | 0.00 | 74 | 1016.5 |
| 20260905203403 | 28 | 256 | 0.0 | 8.0 | 0.00 | 0.00 | 0.00 | 74 | 1016.5 |
| 20260905203302 | 28 | 99 | 1.6 | 8.0 | 0.00 | 0.00 | 0.00 | 74 | 1016.5 |
| 20260905203203 | 28 | 316 | 0.0 | 8.0 | 0.00 | 0.00 | 0.00 | 74 | 1016.5 |
| 20260905203101 | 28 | 34 | 3.2 | 9.7 | 0.00 | 0.00 | 0.00 | 74 | 1016.5 |
| 20260905203004 | 28 | 8 | 3.2 | 9.7 | 0.00 | 0.00 | 0.00 | 74 | 1016.5 |
| 20260905202902 | 28 | 64 | 1.6 | 9.7 | 0.00 | 0.00 | 0.00 | 73 | 1016.5 |
| 20260905202802 | 28 | 349 | 1.6 | 9.7 | 0.00 | 0.00 | 0.00 | 74 | 1016.5 |
| 20260905202702 | 28 | 306 | 3.2 | 9.7 | 0.00 | 0.00 | 0.00 | 73 | 1016.5 |
| 20260905202602 | 28 | 23 | 6.4 | 9.7 | 0.00 | 0.00 | 0.00 | 73 | 1016.4 |
| 20260905202503 | 28 | 4 | 3.2 | 9.7 | 0.00 | 0.00 | 0.00 | 74 | 1016.5 |
| 20260905202402 | 28 | 24 | 1.6 | 9.7 | 0.00 | 0.00 | 0.00 | 73 | 1016.6 |
| 20260905202306 | 28 | 37 | 1.6 | 9.7 | 0.00 | 0.00 | 0.00 | 72 | 1016.4 |
| 20260905202203 | 28 | 30 | 3.2 | 9.7 | 0.00 | 0.00 | 0.00 | 72 | 1016.5 |
| 20260905202102 | 28 | 164 | 1.6 | 9.7 | 0.00 | 0.00 | 0.00 | 72 | 1016.4 |
| 20260905202002 | 28 | 30 | 4.8 | 9.7 | 0.00 | 0.00 | 0.00 | 73 | 1016.4 |
| 20260905201903 | 28 | 16 | 0.0 | 9.7 | 0.00 | 0.00 | 0.00 | 73 | 1016.5 |
| 20260905201803 | 28 | 347 | 3.2 | 9.7 | 0.00 | 0.00 | 0.00 | 72 | 1016.5 |
| 20260905201503 | 28 | 276 | 3.2 | 9.7 | 0.00 | 0.00 | 0.00 | 74 | 1016.5 |
| 20260905201203 | 28 | 125 | 9.7 | 9.7 | 0.00 | 0.00 | 0.00 | 75 | 1016.4 |
| 20260905200902 | 28 | 132 | 1.6 | 9.7 | 0.00 | 0.00 | 0.00 | 74 | 1016.4 |
| 20260905200802 | 28 | 15 | 1.6 | 16.1 | 0.00 | 0.00 | 0.00 | 75 | 1016.5 |
| 20260905200702 | 28 | 87 | 1.6 | 16.1 | 0.00 | 0.00 | 0.00 | 74 | 1016.4 |
| 20260905200602 | 28 | 343 | 1.6 | 16.1 | 0.00 | 0.00 | 0.00 | 74 | 1016.4 |
| 20260905200502 | 28 | 333 | 3.2 | 16.1 | 0.00 | 0.00 | 0.00 | 74 | 1016.5 |
| 20260905200402 | 28 | 355 | 3.2 | 16.1 | 0.00 | 0.00 | 0.00 | 74 | 1016.5 |
| 20260905200203 | 28 | 191 | 1.6 | 16.1 | 0.00 | 0.00 | 0.00 | 74 | 1016.4 |
| 20260905195901 | 28 | 327 | 8.0 | 12.9 | 0.00 | 0.00 | 0.00 | 73 | 1016.5 |
| 20260905195801 | 28 | 202 | 3.2 | 12.9 | 0.00 | 0.00 | 0.00 | 73 | 1016.4 |
| 20260905195701 | 28 | 160 | 3.2 | 12.9 | 0.00 | 0.00 | 0.00 | 73 | 1016.3 |
| 20260905195602 | 28 | 308 | 1.6 | 11.3 | 0.00 | 0.00 | 0.00 | 72 | 1016.4 |
| 20260905195501 | 28 | 115 | 9.7 | 11.3 | 0.00 | 0.00 | 0.00 | 73 | 1016.3 |
| 20260905195306 | 28 | 91 | 3.2 | 16.1 | 0.00 | 0.00 | 0.00 | 73 | 1016.3 |
| 20260905195102 | 28 | 354 | 4.8 | 16.1 | 0.00 | 0.00 | 0.00 | 72 | 1016.4 |
| 20260905195001 | 28 | 346 | 0.0 | 16.1 | 0.00 | 0.00 | 0.00 | 73 | 1016.3 |
| 20260905194902 | 28 | 134 | 1.6 | 16.1 | 0.00 | 0.00 | 0.00 | 73 | 1016.4 |
| 20260905194801 | 28 | 129 | 1.6 | 16.1 | 0.00 | 0.00 | 0.00 | 72 | 1016.3 |
| 20260905194701 | 28 | 89 | 3.2 | 16.1 | 0.00 | 0.00 | 0.00 | 71 | 1016.3 |
| 20260905194602 | 29 | 30 | 3.2 | 16.1 | 0.00 | 0.00 | 0.00 | 71 | 1016.3 |
| 20260905194501 | 29 | 278 | 1.6 | 16.1 | 0.00 | 0.00 | 0.00 | 71 | 1016.3 |
| 20260905194402 | 29 | 6 | 12.9 | 12.9 | 0.00 | 0.00 | 0.00 | 72 | 1016.3 |
| 20260905194300 | 29 | 338 | 3.2 | 6.4 | 0.00 | 0.00 | 0.00 | 72 | 1016.2 |
| 20260905194201 | 29 | 59 | 1.6 | 9.7 | 0.00 | 0.00 | 0.00 | 72 | 1016.2 |
| 20260905193901 | 29 | 327 | 0.0 | 12.9 | 0.00 | 0.00 | 0.00 | 73 | 1016.1 |
| 20260905193801 | 29 | 73 | 6.4 | 12.9 | 0.00 | 0.00 | 0.00 | 73 | 1016.1 |
| 20260905193601 | 29 | 90 | 3.2 | 12.9 | 0.00 | 0.00 | 0.00 | 71 | 1016.1 |
| 20260905193502 | 29 | 136 | 3.2 | 12.9 | 0.00 | 0.00 | 0.00 | 70 | 1016.0 |
| 20260905193301 | 29 | 49 | 1.6 | 14.5 | 0.00 | 0.00 | 0.00 | 70 | 1016.1 |
| 20260905193201 | 30 | 94 | 1.6 | 14.5 | 0.00 | 0.00 | 0.00 | 69 | 1016.0 |
| 20260905193101 | 30 | 78 | 3.2 | 14.5 | 0.00 | 0.00 | 0.00 | 70 | 1016.1 |
| 20260905193002 | 30 | 91 | 1.6 | 14.5 | 0.00 | 0.00 | 0.00 | 70 | 1016.0 |
| 20260905192901 | 30 | 242 | 1.6 | 14.5 | 0.00 | 0.00 | 0.00 | 71 | 1016.1 |
| 20260905192801 | 30 | 79 | 3.2 | 14.5 | 0.00 | 0.00 | 0.00 | 71 | 1016.0 |
| 20260905192701 | 30 | 92 | 1.6 | 14.5 | 0.00 | 0.00 | 0.00 | 71 | 1016.0 |
| 20260905192601 | 30 | 300 | 1.6 | 14.5 | 0.00 | 0.00 | 0.00 | 71 | 1016.2 |
| 20260905192401 | 30 | 81 | 9.7 | 12.9 | 0.00 | 0.00 | 0.00 | 69 | 1016.1 |
| 20260905192301 | 30 | 122 | 4.8 | 12.9 | 0.00 | 0.00 | 0.00 | 70 | 1016.0 |
| 20260905192201 | 30 | 145 | 6.4 | 11.3 | 0.00 | 0.00 | 0.00 | 71 | 1016.0 |
| 20260905192101 | 30 | 115 | 0.0 | 6.4 | 0.00 | 0.00 | 0.00 | 71 | 1016.0 |
| 20260905192001 | 30 | 32 | 1.6 | 11.3 | 0.00 | 0.00 | 0.00 | 71 | 1016.1 |
| 20260905191800 | 30 | 10 | 1.6 | 11.3 | 0.00 | 0.00 | 0.00 | 69 | 1016.2 |
| 20260905191701 | 30 | 158 | 3.2 | 11.3 | 0.00 | 0.00 | 0.00 | 71 | 1016.1 |
| 20260905191602 | 30 | 206 | 1.6 | 11.3 | 0.00 | 0.00 | 0.00 | 70 | 1016.1 |
| 20260905191501 | 30 | 219 | 1.6 | 12.9 | 0.00 | 0.00 | 0.00 | 71 | 1016.0 |
| 20260905191402 | 30 | 89 | 3.2 | 12.9 | 0.00 | 0.00 | 0.00 | 71 | 1016.1 |
| 20260905191301 | 30 | 161 | 4.8 | 12.9 | 0.00 | 0.00 | 0.00 | 71 | 1016.2 |
| 20260905191201 | 30 | 31 | 4.8 | 12.9 | 0.00 | 0.00 | 0.00 | 71 | 1016.1 |
| 20260905191001 | 30 | 311 | 1.6 | 12.9 | 0.00 | 0.00 | 0.00 | 71 | 1016.1 |
| 20260905190901 | 30 | 22 | 3.2 | 12.9 | 0.00 | 0.00 | 0.00 | 71 | 1016.1 |
| 20260905190800 | 30 | 94 | 6.4 | 12.9 | 0.00 | 0.00 | 0.00 | 72 | 1016.1 |
| 20260905190701 | 30 | 359 | 4.8 | 12.9 | 0.00 | 0.00 | 0.00 | 72 | 1016.1 |
| 20260905190501 | 30 | 203 | 1.6 | 11.3 | 0.00 | 0.00 | 0.00 | 71 | 1016.1 |
| 20260905190402 | 30 | 103 | 3.2 | 11.3 | 0.00 | 0.00 | 0.00 | 71 | 1016.2 |
| 20260905190300 | 30 | 122 | 3.2 | 9.7 | 0.00 | 0.00 | 0.00 | 72 | 1016.2 |
| 20260905190002 | 30 | 358 | 1.6 | 12.9 | 0.00 | 0.00 | 0.00 | 72 | 1016.3 |
| 20260905185802 | 30 | 23 | 1.6 | 12.9 | 0.00 | 0.00 | 0.00 | 72 | 1016.2 |
| 20260905185501 | 30 | 316 | 3.2 | 12.9 | 0.00 | 0.00 | 0.00 | 72 | 1016.2 |
| 20260905185401 | 30 | 146 | 1.6 | 12.9 | 0.00 | 0.00 | 0.00 | 73 | 1016.1 |
| 20260905185101 | 29 | 62 | 9.7 | 12.9 | 0.00 | 0.00 | 0.00 | 74 | 1016.1 |
| 20260905185001 | 29 | 45 | 3.2 | 16.1 | 0.00 | 0.00 | 0.00 | 73 | 1016.2 |
| 20260905184900 | 29 | 25 | 9.7 | 16.1 | 0.00 | 0.00 | 0.00 | 73 | 1016.2 |
| 20260905184802 | 29 | 333 | 1.6 | 16.1 | 0.00 | 0.00 | 0.00 | 73 | 1016.2 |
| 20260905184701 | 29 | 355 | 1.6 | 16.1 | 0.00 | 0.00 | 0.00 | 72 | 1016.2 |
| 20260905184601 | 29 | 203 | 0.0 | 16.1 | 0.00 | 0.00 | 0.00 | 72 | 1016.2 |
| 20260905184502 | 29 | 276 | 1.6 | 16.1 | 0.00 | 0.00 | 0.00 | 73 | 1016.2 |
| 20260905184401 | 30 | 82 | 11.3 | 16.1 | 0.00 | 0.00 | 0.00 | 71 | 1016.3 |
| 20260905184201 | 30 | 134 | 11.3 | 11.3 | 0.00 | 0.00 | 0.00 | 71 | 1016.2 |
| 20260905184101 | 30 | 150 | 1.6 | 11.3 | 0.00 | 0.00 | 0.00 | 71 | 1016.3 |
| 20260905184001 | 30 | 29 | 11.3 | 11.3 | 0.00 | 0.00 | 0.00 | 72 | 1016.3 |
| 20260905183901 | 30 | 342 | 9.7 | 9.7 | 0.00 | 0.00 | 0.00 | 72 | 1016.2 |
| 20260905183801 | 30 | 347 | 1.6 | 9.7 | 0.00 | 0.00 | 0.00 | 75 | 1016.2 |
| 20260905183701 | 30 | 141 | 0.0 | 9.7 | 0.00 | 0.00 | 0.00 | 74 | 1016.3 |
| 20260905183602 | 30 | 143 | 1.6 | 9.7 | 0.00 | 0.00 | 0.00 | 74 | 1016.3 |
| 20260905183501 | 30 | 114 | 1.6 | 9.7 | 0.00 | 0.00 | 0.00 | 73 | 1016.3 |
| 20260905183404 | 30 | 91 | 8.0 | 9.7 | 0.00 | 0.00 | 0.00 | 74 | 1016.3 |
| 20260905183302 | 30 | 29 | 4.8 | 9.7 | 0.00 | 0.00 | 0.00 | 74 | 1016.4 |
| 20260905183201 | 29 | 25 | 0.0 | 8.0 | 0.00 | 0.00 | 0.00 | 75 | 1016.3 |
| 20260905183101 | 29 | 234 | 0.0 | 8.0 | 0.00 | 0.00 | 0.00 | 74 | 1016.4 |
| 20260905183001 | 29 | 207 | 1.6 | 8.0 | 0.00 | 0.00 | 0.00 | 75 | 1016.3 |
| 20260905182701 | 29 | 6 | 4.8 | 8.0 | 0.00 | 0.00 | 0.00 | 75 | 1016.4 |
| 20260905182401 | 29 | 264 | 0.0 | 6.4 | 0.00 | 0.00 | 0.00 | 74 | 1016.3 |
| 20260905182201 | 29 | 309 | 3.2 | 6.4 | 0.00 | 0.00 | 0.00 | 73 | 1016.3 |
| 20260905182101 | 29 | 11 | 3.2 | 6.4 | 0.00 | 0.00 | 0.00 | 73 | 1016.3 |
| 20260905182001 | 29 | 226 | 3.2 | 8.0 | 0.00 | 0.00 | 0.00 | 73 | 1016.3 |
| 20260905181800 | 29 | 134 | 1.6 | 8.0 | 0.00 | 0.00 | 0.00 | 73 | 1016.3 |
| 20260905181600 | 30 | 115 | 1.6 | 8.0 | 0.00 | 0.00 | 0.00 | 73 | 1016.2 |
| 20260905181501 | 30 | 1 | 3.2 | 8.0 | 0.00 | 0.00 | 0.00 | 72 | 1016.2 |
| 20260905181301 | 30 | 155 | 4.8 | 8.0 | 0.00 | 0.00 | 0.00 | 72 | 1016.2 |
| 20260905181004 | 30 | 117 | 0.0 | 4.8 | 0.00 | 0.00 | 0.00 | 72 | 1016.3 |
| 20260905180901 | 30 | 148 | 3.2 | 4.8 | 0.00 | 0.00 | 0.00 | 72 | 1016.2 |
| 20260905180803 | 30 | 330 | 1.6 | 4.8 | 0.00 | 0.00 | 0.00 | 73 | 1016.2 |
| 20260905180701 | 30 | 30 | 0.0 | 4.8 | 0.00 | 0.00 | 0.00 | 73 | 1016.2 |
| 20260905180501 | 30 | 91 | 1.6 | 4.8 | 0.00 | 0.00 | 0.00 | 72 | 1016.2 |
| 20260905180404 | 30 | 32 | 1.6 | 4.8 | 0.00 | 0.00 | 0.00 | 73 | 1016.2 |
| 20260905180202 | 30 | 17 | 1.6 | 11.3 | 0.00 | 0.00 | 0.00 | 72 | 1016.3 |
| 20260905180005 | 30 | 44 | 0.0 | 11.3 | 0.00 | 0.00 | 0.00 | 71 | 1016.2 |
| 20260905175902 | 30 | 110 | 0.0 | 11.3 | 0.00 | 0.00 | 0.00 | 71 | 1016.3 |
| 20260905175801 | 30 | 76 | 0.0 | 11.3 | 0.00 | 0.00 | 0.00 | 71 | 1016.2 |
| 20260905175701 | 30 | 354 | 3.2 | 11.3 | 0.00 | 0.00 | 0.00 | 72 | 1016.2 |
| 20260905175501 | 30 | 352 | 3.2 | 11.3 | 0.00 | 0.00 | 0.00 | 73 | 1016.2 |
| 20260905175401 | 30 | 357 | 0.0 | 11.3 | 0.00 | 0.00 | 0.00 | 72 | 1016.2 |
| 20260905175306 | 30 | 356 | 3.2 | 6.4 | 0.00 | 0.00 | 0.00 | 73 | 1016.1 |
| 20260905175202 | 30 | 46 | 4.8 | 6.4 | 0.00 | 0.00 | 0.00 | 73 | 1016.1 |
| 20260905175103 | 30 | 130 | 1.6 | 6.4 | 0.00 | 0.00 | 0.00 | 74 | 1016.1 |
| 20260905175004 | 30 | 30 | 0.0 | 6.4 | 0.00 | 0.00 | 0.00 | 73 | 1016.1 |
| 20260905174903 | 30 | 119 | 0.0 | 6.4 | 0.00 | 0.00 | 0.00 | 73 | 1016.1 |
| 20260905174804 | 30 | 163 | 0.0 | 6.4 | 0.00 | 0.00 | 0.00 | 73 | 1016.0 |
| 20260905174704 | 30 | 98 | 3.2 | 6.4 | 0.00 | 0.00 | 0.00 | 73 | 1016.0 |
| 20260905174601 | 30 | 94 | 1.6 | 6.4 | 0.00 | 0.00 | 0.00 | 72 | 1016.1 |
| 20260905174501 | 30 | 101 | 6.4 | 6.4 | 0.00 | 0.00 | 0.00 | 74 | 1016.1 |
| 20260905174402 | 30 | 106 | 0.0 | 6.4 | 0.00 | 0.00 | 0.00 | 72 | 1016.1 |
| 20260905174301 | 30 | 27 | 1.6 | 6.4 | 0.00 | 0.00 | 0.00 | 73 | 1016.2 |
| 20260905174201 | 30 | 339 | 0.0 | 6.4 | 0.00 | 0.00 | 0.00 | 71 | 1016.2 |
| 20260905174103 | 30 | 33 | 3.2 | 6.4 | 0.00 | 0.00 | 0.00 | 72 | 1016.1 |
| 20260905173909 | 30 | 321 | 1.6 | 12.9 | 0.00 | 0.00 | 0.00 | 72 | 1016.1 |
| 20260905173801 | 30 | 64 | 3.2 | 12.9 | 0.00 | 0.00 | 0.00 | 72 | 1016.1 |
| 20260905173700 | 30 | 188 | 1.6 | 12.9 | 0.00 | 0.00 | 0.00 | 72 | 1016.1 |
| 20260905173603 | 30 | 59 | 1.6 | 12.9 | 0.00 | 0.00 | 0.00 | 73 | 1016.1 |
| 20260905173503 | 30 | 330 | 1.6 | 12.9 | 0.00 | 0.00 | 0.00 | 73 | 1016.2 |
| 20260905173402 | 30 | 135 | 0.0 | 12.9 | 0.00 | 0.00 | 0.00 | 74 | 1016.2 |
| 20260905173302 | 30 | 61 | 1.6 | 12.9 | 0.00 | 0.00 | 0.00 | 75 | 1016.2 |
| 20260905173104 | 29 | 114 | 8.0 | 12.9 | 0.00 | 0.00 | 0.00 | 73 | 1016.2 |
| 20260905173004 | 29 | 117 | 1.6 | 9.7 | 0.00 | 0.00 | 0.00 | 75 | 1016.2 |
| 20260905172903 | 29 | 214 | 1.6 | 9.7 | 0.00 | 0.00 | 0.00 | 75 | 1016.2 |
| 20260905172802 | 29 | 4 | 0.0 | 9.7 | 0.00 | 0.00 | 0.00 | 75 | 1016.2 |
| 20260905172702 | 29 | 86 | 0.0 | 9.7 | 0.00 | 0.00 | 0.00 | 75 | 1016.2 |
| 20260905172602 | 29 | 10 | 3.2 | 9.7 | 0.00 | 0.00 | 0.00 | 75 | 1016.2 |
| 20260905172502 | 29 | 27 | 3.2 | 9.7 | 0.00 | 0.00 | 0.00 | 74 | 1016.2 |
| 20260905172305 | 29 | 349 | 0.0 | 8.0 | 0.00 | 0.00 | 0.00 | 74 | 1016.2 |
| 20260905172203 | 29 | 66 | 3.2 | 8.0 | 0.00 | 0.00 | 0.00 | 74 | 1016.2 |
| 20260905172102 | 29 | 102 | 6.4 | 12.9 | 0.00 | 0.00 | 0.00 | 75 | 1016.2 |
| 20260905172003 | 29 | 46 | 0.0 | 12.9 | 0.00 | 0.00 | 0.00 | 75 | 1016.1 |
| 20260905171901 | 29 | 46 | 0.0 | 12.9 | 0.00 | 0.00 | 0.00 | 76 | 1016.1 |
| 20260905171803 | 29 | 107 | 1.6 | 12.9 | 0.00 | 0.00 | 0.00 | 75 | 1016.1 |
| 20260905171701 | 29 | 22 | 4.8 | 12.9 | 0.00 | 0.00 | 0.00 | 75 | 1016.1 |
| 20260905171602 | 29 | 15 | 1.6 | 12.9 | 0.00 | 0.00 | 0.00 | 75 | 1016.2 |
| 20260905171504 | 29 | 202 | 1.6 | 12.9 | 0.00 | 0.00 | 0.00 | 74 | 1016.1 |
| 20260905171405 | 29 | 105 | 1.6 | 12.9 | 0.00 | 0.00 | 0.00 | 74 | 1016.2 |
| 20260905171303 | 29 | 122 | 4.8 | 12.9 | 0.00 | 0.00 | 0.00 | 73 | 1016.1 |
| 20260905171204 | 29 | 133 | 6.4 | 12.9 | 0.00 | 0.00 | 0.00 | 74 | 1016.1 |
| 20260905171101 | 29 | 187 | 3.2 | 11.3 | 0.00 | 0.00 | 0.00 | 74 | 1016.1 |
| 20260905171003 | 29 | 95 | 6.4 | 11.3 | 0.00 | 0.00 | 0.00 | 74 | 1016.1 |
| 20260905170902 | 29 | 114 | 3.2 | 8.0 | 0.00 | 0.00 | 0.00 | 75 | 1016.2 |
| 20260905170803 | 29 | 359 | 0.0 | 9.7 | 0.00 | 0.00 | 0.00 | 73 | 1016.2 |
| 20260905170703 | 29 | 340 | 3.2 | 9.7 | 0.00 | 0.00 | 0.00 | 74 | 1016.3 |
| 20260905170602 | 29 | 122 | 3.2 | 9.7 | 0.00 | 0.00 | 0.00 | 74 | 1016.4 |
| 20260905170404 | 30 | 124 | 1.6 | 9.7 | 0.00 | 0.00 | 0.00 | 74 | 1016.3 |
| 20260905170301 | 29 | 1 | 4.8 | 9.7 | 0.00 | 0.00 | 0.00 | 75 | 1016.3 |
| 20260905170204 | 29 | 92 | 1.6 | 9.7 | 0.00 | 0.00 | 0.00 | 74 | 1016.3 |
| 20260905170104 | 29 | 87 | 0.0 | 9.7 | 0.00 | 0.00 | 0.00 | 74 | 1016.3 |
| 20260905165902 | 29 | 73 | 8.0 | 9.7 | 0.00 | 0.00 | 0.00 | 73 | 1016.4 |
| 20260905165802 | 29 | 75 | 6.4 | 6.4 | 0.00 | 0.00 | 0.00 | 75 | 1016.4 |
| 20260905165700 | 29 | 46 | 1.6 | 6.4 | 0.00 | 0.00 | 0.00 | 75 | 1016.4 |
| 20260905165601 | 29 | 30 | 3.2 | 6.4 | 0.00 | 0.00 | 0.00 | 75 | 1016.4 |
| 20260905165400 | 29 | 233 | 0.0 | 6.4 | 0.00 | 0.00 | 0.00 | 77 | 1016.4 |
| 20260905165306 | 29 | 359 | 1.6 | 6.4 | 0.00 | 0.00 | 0.00 | 76 | 1016.5 |
| 20260905165202 | 28 | 33 | 1.6 | 6.4 | 0.00 | 0.00 | 0.00 | 76 | 1016.4 |
| 20260905165102 | 28 | 255 | 1.6 | 8.0 | 0.00 | 0.00 | 0.00 | 76 | 1016.5 |
| 20260905165001 | 28 | 128 | 3.2 | 8.0 | 0.00 | 0.00 | 0.00 | 76 | 1016.4 |
| 20260905164901 | 28 | 46 | 1.6 | 8.0 | 0.00 | 0.00 | 0.00 | 75 | 1016.5 |
| 20260905164702 | 29 | 334 | 0.0 | 8.0 | 0.00 | 0.00 | 0.00 | 75 | 1016.5 |
| 20260905164601 | 29 | 311 | 3.2 | 8.0 | 0.00 | 0.00 | 0.00 | 74 | 1016.5 |
| 20260905164501 | 29 | 34 | 3.2 | 8.0 | 0.00 | 0.00 | 0.00 | 74 | 1016.6 |
| 20260905164401 | 29 | 28 | 6.4 | 9.7 | 0.00 | 0.00 | 0.00 | 74 | 1016.5 |
| 20260905164301 | 29 | 345 | 4.8 | 12.9 | 0.00 | 0.00 | 0.00 | 75 | 1016.5 |
| 20260905164201 | 29 | 276 | 3.2 | 12.9 | 0.00 | 0.00 | 0.00 | 77 | 1016.5 |
| 20260905164102 | 29 | 22 | 0.0 | 12.9 | 0.00 | 0.00 | 0.00 | 76 | 1016.5 |
| 20260905164001 | 29 | 5 | 3.2 | 12.9 | 0.00 | 0.00 | 0.00 | 76 | 1016.6 |
| 20260905163901 | 29 | 13 | 4.8 | 12.9 | 0.00 | 0.00 | 0.00 | 75 | 1016.5 |
| 20260905163801 | 29 | 3 | 1.6 | 12.9 | 0.00 | 0.00 | 0.00 | 76 | 1016.5 |
| 20260905163702 | 29 | 16 | 1.6 | 12.9 | 0.00 | 0.00 | 0.00 | 75 | 1016.5 |
| 20260905163601 | 29 | 89 | 3.2 | 12.9 | 0.00 | 0.00 | 0.00 | 74 | 1016.5 |
| 20260905163501 | 29 | 128 | 8.0 | 12.9 | 0.00 | 0.00 | 0.00 | 75 | 1016.5 |
| 20260905163301 | 29 | 155 | 3.2 | 6.4 | 0.00 | 0.00 | 0.00 | 76 | 1016.5 |
| 20260905163202 | 29 | 129 | 3.2 | 6.4 | 0.00 | 0.00 | 0.00 | 76 | 1016.5 |
| 20260905163000 | 29 | 60 | 1.6 | 6.4 | 0.00 | 0.00 | 0.00 | 75 | 1016.5 |
| 20260905162902 | 29 | 60 | 1.6 | 6.4 | 0.00 | 0.00 | 0.00 | 77 | 1016.5 |
| 20260905162801 | 29 | 41 | 3.2 | 6.4 | 0.00 | 0.00 | 0.00 | 75 | 1016.5 |
| 20260905162700 | 29 | 46 | 1.6 | 6.4 | 0.00 | 0.00 | 0.00 | 75 | 1016.5 |
| 20260905162601 | 29 | 165 | 1.6 | 6.4 | 0.00 | 0.00 | 0.00 | 76 | 1016.5 |
| 20260905162500 | 29 | 27 | 1.6 | 6.4 | 0.00 | 0.00 | 0.00 | 74 | 1016.5 |
| 20260905162401 | 29 | 12 | 0.0 | 6.4 | 0.00 | 0.00 | 0.00 | 75 | 1016.5 |
| 20260905162301 | 29 | 105 | 4.8 | 6.4 | 0.00 | 0.00 | 0.00 | 76 | 1016.5 |
| 20260905162200 | 29 | 273 | 3.2 | 8.0 | 0.00 | 0.00 | 0.00 | 76 | 1016.5 |
| 20260905162101 | 29 | 25 | 4.8 | 8.0 | 0.00 | 0.00 | 0.00 | 76 | 1016.5 |
| 20260905161902 | 29 | 99 | 1.6 | 8.0 | 0.00 | 0.00 | 0.00 | 77 | 1016.5 |
| 20260905161801 | 29 | 10 | 0.0 | 9.7 | 0.00 | 0.00 | 0.00 | 77 | 1016.5 |
| 20260905161601 | 29 | 1 | 1.6 | 9.7 | 0.00 | 0.00 | 0.00 | 76 | 1016.5 |
| 20260905161504 | 28 | 295 | 3.2 | 9.7 | 0.00 | 0.00 | 0.00 | 76 | 1016.5 |
| 20260905161401 | 29 | 130 | 3.2 | 9.7 | 0.00 | 0.00 | 0.00 | 77 | 1016.5 |
| 20260905161301 | 28 | 41 | 1.6 | 9.7 | 0.00 | 0.00 | 0.00 | 76 | 1016.5 |
| 20260905161201 | 28 | 63 | 3.2 | 9.7 | 0.00 | 0.00 | 0.00 | 76 | 1016.5 |
| 20260905161101 | 28 | 37 | 0.0 | 9.7 | 0.00 | 0.00 | 0.00 | 77 | 1016.5 |
| 20260905161000 | 28 | 59 | 3.2 | 8.0 | 0.00 | 0.00 | 0.00 | 77 | 1016.5 |
| 20260905160901 | 28 | 119 | 4.8 | 8.0 | 0.00 | 0.00 | 0.00 | 78 | 1016.5 |
| 20260905160801 | 28 | 6 | 1.6 | 9.7 | 0.00 | 0.00 | 0.00 | 77 | 1016.6 |
| 20260905160702 | 28 | 159 | 1.6 | 9.7 | 0.00 | 0.00 | 0.00 | 77 | 1016.5 |
| 20260905160601 | 28 | 151 | 1.6 | 9.7 | 0.00 | 0.00 | 0.00 | 77 | 1016.6 |
| 20260905160501 | 28 | 42 | 3.2 | 9.7 | 0.00 | 0.00 | 0.00 | 77 | 1016.5 |
| 20260905160401 | 28 | 20 | 8.0 | 9.7 | 0.00 | 0.00 | 0.00 | 78 | 1016.6 |
| 20260905160301 | 28 | 345 | 0.0 | 9.7 | 0.00 | 0.00 | 0.00 | 78 | 1016.5 |
| 20260905160201 | 28 | 35 | 1.6 | 9.7 | 0.00 | 0.00 | 0.00 | 77 | 1016.6 |
| 20260905160101 | 28 | 62 | 3.2 | 9.7 | 0.00 | 0.00 | 0.00 | 77 | 1016.5 |
| 20260905160004 | 28 | 156 | 4.8 | 11.3 | 0.00 | 0.00 | 0.00 | 78 | 1016.5 |
| 20260905155902 | 28 | 3 | 3.2 | 11.3 | 0.00 | 0.00 | 0.00 | 79 | 1016.5 |
| 20260905155701 | 28 | 316 | 1.6 | 11.3 | 0.00 | 0.00 | 0.00 | 79 | 1016.5 |
| 20260905155501 | 28 | 74 | 1.6 | 11.3 | 0.00 | 0.00 | 0.00 | 79 | 1016.5 |
| 20260905155300 | 28 | 193 | 1.6 | 11.3 | 0.00 | 0.00 | 0.00 | 79 | 1016.4 |
| 20260905155201 | 28 | 62 | 9.7 | 12.9 | 0.00 | 0.00 | 0.00 | 78 | 1016.4 |
| 20260905155101 | 28 | 157 | 6.4 | 12.9 | 0.00 | 0.00 | 0.00 | 78 | 1016.4 |
| 20260905155001 | 28 | 87 | 3.2 | 12.9 | 0.00 | 0.00 | 0.00 | 78 | 1016.4 |
| 20260905154902 | 28 | 69 | 6.4 | 12.9 | 0.00 | 0.00 | 0.00 | 79 | 1016.4 |
| 20260905154702 | 27 | 85 | 1.6 | 12.9 | 0.00 | 0.00 | 0.00 | 80 | 1016.4 |
| 20260905154602 | 27 | 100 | 4.8 | 12.9 | 0.00 | 0.00 | 0.00 | 79 | 1016.4 |
| 20260905154401 | 27 | 143 | 4.8 | 12.9 | 0.00 | 0.00 | 0.00 | 79 | 1016.4 |
| 20260905154301 | 27 | 62 | 8.0 | 9.7 | 0.00 | 0.00 | 0.00 | 80 | 1016.4 |
| 20260905154101 | 27 | 103 | 0.0 | 8.0 | 0.00 | 0.00 | 0.00 | 80 | 1016.4 |
| 20260905154001 | 27 | 206 | 3.2 | 8.0 | 0.00 | 0.00 | 0.00 | 79 | 1016.3 |
| 20260905153900 | 27 | 283 | 1.6 | 8.0 | 0.00 | 0.00 | 0.00 | 80 | 1016.4 |
| 20260905153601 | 27 | 139 | 3.2 | 11.3 | 0.00 | 0.00 | 0.00 | 81 | 1016.3 |
| 20260905153501 | 27 | 84 | 3.2 | 11.3 | 0.00 | 0.00 | 0.00 | 81 | 1016.3 |
| 20260905153401 | 27 | 122 | 3.2 | 11.3 | 0.00 | 0.00 | 0.00 | 82 | 1016.4 |
| 20260905153301 | 27 | 122 | 3.2 | 11.3 | 0.00 | 0.00 | 0.00 | 81 | 1016.3 |
| 20260905153203 | 27 | 41 | 3.2 | 11.3 | 0.00 | 0.00 | 0.00 | 82 | 1016.3 |
| 20260905153101 | 27 | 8 | 1.6 | 11.3 | 0.00 | 0.00 | 0.00 | 82 | 1016.3 |
| 20260905153001 | 27 | 37 | 1.6 | 11.3 | 0.00 | 0.00 | 0.00 | 81 | 1016.4 |
| 20260905152901 | 27 | 86 | 4.8 | 14.5 | 0.00 | 0.00 | 0.00 | 81 | 1016.3 |
| 20260905152801 | 27 | 117 | 8.0 | 14.5 | 0.00 | 0.00 | 0.00 | 81 | 1016.3 |
| 20260905152701 | 27 | 68 | 8.0 | 14.5 | 0.00 | 0.00 | 0.00 | 81 | 1016.3 |
| 20260905152602 | 27 | 96 | 11.3 | 14.5 | 0.00 | 0.00 | 0.00 | 82 | 1016.3 |
| 20260905152502 | 27 | 288 | 0.0 | 14.5 | 0.00 | 0.00 | 0.00 | 82 | 1016.3 |
| 20260905152401 | 27 | 102 | 9.7 | 14.5 | 0.00 | 0.00 | 0.00 | 82 | 1016.3 |
| 20260905152300 | 27 | 87 | 6.4 | 14.5 | 0.00 | 0.00 | 0.00 | 82 | 1016.3 |
| 20260905152202 | 27 | 141 | 6.4 | 14.5 | 0.00 | 0.00 | 0.00 | 81 | 1016.3 |
| 20260905152001 | 27 | 124 | 8.0 | 14.5 | 0.00 | 0.00 | 0.00 | 82 | 1016.3 |
| 20260905151901 | 27 | 77 | 4.8 | 11.3 | 0.00 | 0.00 | 0.00 | 82 | 1016.3 |
| 20260905151805 | 27 | 85 | 6.4 | 11.3 | 0.00 | 0.00 | 0.00 | 83 | 1016.3 |
| 20260905151601 | 26 | 89 | 3.2 | 11.3 | 0.00 | 0.00 | 0.00 | 82 | 1016.3 |
| 20260905151502 | 26 | 8 | 4.8 | 11.3 | 0.00 | 0.00 | 0.00 | 84 | 1016.2 |
| 20260905151401 | 26 | 96 | 0.0 | 11.3 | 0.00 | 0.00 | 0.00 | 83 | 1016.2 |
| 20260905151302 | 26 | 325 | 1.6 | 11.3 | 0.00 | 0.00 | 0.00 | 84 | 1016.2 |
| 20260905151101 | 26 | 88 | 3.2 | 11.3 | 0.00 | 0.00 | 0.00 | 84 | 1016.2 |
| 20260905151001 | 26 | 86 | 1.6 | 11.3 | 0.00 | 0.00 | 0.00 | 84 | 1016.2 |
| 20260905150901 | 26 | 290 | 0.0 | 11.3 | 0.00 | 0.00 | 0.00 | 85 | 1016.1 |
| 20260905150801 | 26 | 360 | 1.6 | 11.3 | 0.00 | 0.00 | 0.00 | 85 | 1016.2 |
| 20260905150702 | 26 | 16 | 6.4 | 11.3 | 0.00 | 0.00 | 0.00 | 84 | 1016.1 |
| 20260905150601 | 26 | 158 | 4.8 | 11.3 | 0.00 | 0.00 | 0.00 | 84 | 1016.1 |
| 20260905150505 | 26 | 98 | 4.8 | 11.3 | 0.00 | 0.00 | 0.00 | 85 | 1016.1 |
| 20260905150401 | 26 | 8 | 1.6 | 8.0 | 0.00 | 0.00 | 0.00 | 85 | 1016.1 |
| 20260905150302 | 26 | 238 | 0.0 | 8.0 | 0.00 | 0.00 | 0.00 | 85 | 1016.2 |
| 20260905145900 | 26 | 13 | 0.0 | 8.0 | 0.00 | 0.00 | 0.00 | 87 | 1016.1 |
| 20260905145800 | 25 | 41 | 1.6 | 6.4 | 0.00 | 0.00 | 0.00 | 87 | 1016.1 |
| 20260905145700 | 25 | 71 | 3.2 | 6.4 | 0.00 | 0.00 | 0.00 | 86 | 1016.0 |
| 20260905145501 | 25 | 359 | 1.6 | 6.4 | 0.00 | 0.00 | 0.00 | 86 | 1016.0 |
| 20260905145259 | 25 | 86 | 1.6 | 9.7 | 0.00 | 0.00 | 0.00 | 86 | 1016.1 |
| 20260905145201 | 25 | 207 | 0.0 | 11.3 | 0.00 | 0.00 | 0.00 | 86 | 1016.0 |
| 20260905145100 | 25 | 63 | 0.0 | 11.3 | 0.00 | 0.00 | 0.00 | 86 | 1016.0 |
| 20260905145001 | 25 | 334 | 1.6 | 11.3 | 0.00 | 0.00 | 0.00 | 86 | 1016.0 |
| 20260905144900 | 25 | 6 | 1.6 | 11.3 | 0.00 | 0.00 | 0.00 | 88 | 1015.9 |
| 20260905144759 | 25 | 106 | 0.0 | 12.9 | 0.00 | 0.00 | 0.00 | 88 | 1015.9 |
| 20260905144701 | 25 | 86 | 1.6 | 12.9 | 0.00 | 0.00 | 0.00 | 87 | 1015.9 |
| 20260905144601 | 25 | 134 | 1.6 | 12.9 | 0.00 | 0.00 | 0.00 | 88 | 1015.9 |
| 20260905144501 | 25 | 105 | 3.2 | 12.9 | 0.00 | 0.00 | 0.00 | 88 | 1015.8 |
| 20260905144400 | 25 | 91 | 9.7 | 12.9 | 0.00 | 0.00 | 0.00 | 88 | 1015.9 |
| 20260905144301 | 25 | 89 | 6.4 | 12.9 | 0.00 | 0.00 | 0.00 | 88 | 1015.8 |
| 20260905144100 | 25 | 109 | 8.0 | 14.5 | 0.00 | 0.00 | 0.00 | 88 | 1015.9 |
| 20260905143900 | 25 | 66 | 4.8 | 14.5 | 0.00 | 0.00 | 0.00 | 89 | 1015.9 |
| 20260905143803 | 25 | 61 | 3.2 | 14.5 | 0.00 | 0.00 | 0.00 | 89 | 1015.9 |
| 20260905143700 | 25 | 171 | 4.8 | 14.5 | 0.00 | 0.00 | 0.00 | 89 | 1015.9 |
| 20260905143600 | 25 | 102 | 1.6 | 14.5 | 0.00 | 0.00 | 0.00 | 89 | 1015.9 |
| 20260905143500 | 24 | 89 | 9.7 | 14.5 | 0.00 | 0.00 | 0.00 | 89 | 1015.9 |
| 20260905143401 | 24 | 94 | 9.7 | 14.5 | 0.00 | 0.00 | 0.00 | 89 | 1015.8 |
| 20260905143300 | 24 | 133 | 6.4 | 14.5 | 0.00 | 0.00 | 0.00 | 89 | 1015.9 |
| 20260905143200 | 24 | 129 | 6.4 | 14.5 | 0.00 | 0.00 | 0.00 | 89 | 1015.9 |
| 20260905143101 | 24 | 217 | 4.8 | 14.5 | 0.00 | 0.00 | 0.00 | 89 | 1015.9 |
| 20260905142959 | 24 | 126 | 8.0 | 12.9 | 0.00 | 0.00 | 0.00 | 90 | 1015.9 |
| 20260905142900 | 24 | 321 | 0.0 | 12.9 | 0.00 | 0.00 | 0.00 | 90 | 1015.9 |
| 20260905142800 | 24 | 117 | 6.4 | 12.9 | 0.00 | 0.00 | 0.00 | 90 | 1015.9 |
| 20260905142700 | 24 | 328 | 3.2 | 12.9 | 0.00 | 0.00 | 0.00 | 90 | 1015.9 |
| 20260905142600 | 24 | 85 | 6.4 | 12.9 | 0.00 | 0.00 | 0.00 | 90 | 1015.8 |
| 20260905142459 | 24 | 120 | 3.2 | 11.3 | 0.00 | 0.00 | 0.00 | 90 | 1015.9 |
| 20260905142400 | 24 | 67 | 9.7 | 11.3 | 0.00 | 0.00 | 0.00 | 90 | 1015.9 |
| 20260905142300 | 24 | 77 | 6.4 | 11.3 | 0.00 | 0.00 | 0.00 | 91 | 1015.9 |
| 20260905142200 | 24 | 88 | 3.2 | 11.3 | 0.00 | 0.00 | 0.00 | 90 | 1016.0 |
| 20260905142100 | 24 | 87 | 8.0 | 14.5 | 0.00 | 0.00 | 0.00 | 90 | 1016.0 |
| 20260905142000 | 24 | 98 | 6.4 | 14.5 | 0.00 | 0.00 | 0.00 | 91 | 1016.0 |
| 20260905141859 | 24 | 103 | 3.2 | 14.5 | 0.00 | 0.00 | 0.00 | 91 | 1016.0 |
| 20260905141802 | 24 | 132 | 1.6 | 14.5 | 0.00 | 0.00 | 0.00 | 91 | 1015.9 |
| 20260905141700 | 24 | 334 | 0.0 | 14.5 | 0.00 | 0.00 | 0.00 | 91 | 1015.9 |
| 20260905141602 | 24 | 146 | 4.8 | 14.5 | 0.00 | 0.00 | 0.00 | 91 | 1015.9 |
| 20260905141500 | 24 | 107 | 1.6 | 16.1 | 0.00 | 0.00 | 0.00 | 91 | 1015.9 |
| 20260905141400 | 24 | 79 | 9.7 | 16.1 | 0.00 | 0.00 | 0.00 | 90 | 1015.9 |
| 20260905141300 | 24 | 95 | 11.3 | 16.1 | 0.00 | 0.00 | 0.00 | 91 | 1015.8 |
| 20260905141159 | 24 | 128 | 3.2 | 16.1 | 0.00 | 0.00 | 0.00 | 90 | 1015.9 |
| 20260905141100 | 24 | 123 | 6.4 | 16.1 | 0.00 | 0.00 | 0.00 | 91 | 1015.9 |
| 20260905140959 | 24 | 138 | 3.2 | 16.1 | 0.00 | 0.00 | 0.00 | 90 | 1015.8 |
| 20260905140904 | 24 | 75 | 6.4 | 16.1 | 0.00 | 0.00 | 0.00 | 90 | 1015.8 |
| 20260905140600 | 24 | 138 | 3.2 | 14.5 | 0.00 | 0.00 | 0.00 | 90 | 1015.7 |
| 20260905140500 | 24 | 115 | 3.2 | 14.5 | 0.00 | 0.00 | 0.00 | 90 | 1015.8 |
| 20260905140400 | 25 | 100 | 9.7 | 14.5 | 0.00 | 0.00 | 0.00 | 90 | 1015.7 |
| 20260905140303 | 25 | 101 | 6.4 | 14.5 | 0.00 | 0.00 | 0.00 | 89 | 1015.7 |
| 20260905140159 | 25 | 86 | 4.8 | 14.5 | 0.00 | 0.00 | 0.00 | 89 | 1015.7 |
| 20260905140100 | 25 | 56 | 6.4 | 8.0 | 0.00 | 0.00 | 0.00 | 89 | 1015.7 |
| 20260905140000 | 25 | 39 | 3.2 | 8.0 | 0.00 | 0.00 | 0.00 | 90 | 1015.6 |
| 20260905135902 | 25 | 238 | 0.0 | 9.7 | 0.00 | 0.00 | 0.00 | 89 | 1015.6 |
| 20260905135804 | 25 | 94 | 0.0 | 11.3 | 0.00 | 0.00 | 0.00 | 89 | 1015.6 |
| 20260905135702 | 25 | 347 | 3.2 | 12.9 | 0.00 | 0.00 | 0.00 | 89 | 1015.6 |
| 20260905135603 | 25 | 101 | 3.2 | 12.9 | 0.00 | 0.00 | 0.00 | 89 | 1015.6 |
| 20260905135402 | 25 | 90 | 0.0 | 12.9 | 0.00 | 0.00 | 0.00 | 89 | 1015.5 |
| 20260905135301 | 25 | 16 | 1.6 | 12.9 | 0.00 | 0.00 | 0.00 | 89 | 1015.6 |
| 20260905135201 | 25 | 89 | 1.6 | 12.9 | 0.00 | 0.00 | 0.00 | 89 | 1015.5 |
| 20260905135101 | 25 | 86 | 1.6 | 12.9 | 0.00 | 0.00 | 0.00 | 88 | 1015.5 |
| 20260905134801 | 25 | 116 | 0.0 | 12.9 | 0.00 | 0.00 | 0.00 | 88 | 1015.4 |
| 20260905134601 | 25 | 121 | 6.4 | 12.9 | 0.00 | 0.00 | 0.00 | 89 | 1015.4 |
| 20260905134501 | 25 | 81 | 4.8 | 12.9 | 0.00 | 0.00 | 0.00 | 89 | 1015.5 |
| 20260905134301 | 25 | 23 | 3.2 | 12.9 | 0.00 | 0.00 | 0.00 | 89 | 1015.4 |
| 20260905134201 | 25 | 39 | 3.2 | 12.9 | 0.00 | 0.00 | 0.00 | 89 | 1015.4 |
| 20260905134102 | 25 | 119 | 0.0 | 12.9 | 0.00 | 0.00 | 0.00 | 89 | 1015.4 |
| 20260905133901 | 25 | 83 | 8.0 | 12.9 | 0.00 | 0.00 | 0.00 | 88 | 1015.5 |
| 20260905133701 | 26 | 105 | 8.0 | 12.9 | 0.00 | 0.00 | 0.00 | 88 | 1015.4 |
| 20260905133601 | 26 | 142 | 1.6 | 12.9 | 0.00 | 0.00 | 0.00 | 88 | 1015.2 |
| 20260905133502 | 26 | 139 | 1.6 | 11.3 | 0.00 | 0.00 | 0.00 | 88 | 1015.3 |
| 20260905133402 | 26 | 106 | 3.2 | 8.0 | 0.00 | 0.00 | 0.00 | 89 | 1015.3 |
| 20260905133301 | 26 | 91 | 8.0 | 8.0 | 0.00 | 0.00 | 0.00 | 90 | 1015.3 |
| 20260905133201 | 25 | 345 | 0.0 | 4.8 | 0.00 | 0.00 | 0.00 | 89 | 1015.3 |
| 20260905133101 | 25 | 126 | 1.6 | 4.8 | 0.00 | 0.00 | 0.00 | 89 | 1015.4 |
| 20260905133001 | 25 | 188 | 3.2 | 4.8 | 0.00 | 0.00 | 0.00 | 89 | 1015.4 |
| 20260905132901 | 25 | 36 | 0.0 | 4.8 | 0.00 | 0.00 | 0.00 | 89 | 1015.4 |
| 20260905132801 | 25 | 26 | 1.6 | 4.8 | 0.00 | 0.00 | 0.00 | 89 | 1015.4 |
| 20260905132703 | 25 | 25 | 3.2 | 4.8 | 0.00 | 0.00 | 0.00 | 90 | 1015.4 |
| 20260905132601 | 25 | 288 | 0.0 | 4.8 | 0.00 | 0.00 | 0.00 | 90 | 1015.3 |
| 20260905132501 | 25 | 324 | 0.0 | 4.8 | 0.00 | 0.00 | 0.00 | 90 | 1015.3 |
| 20260905132402 | 25 | 136 | 0.0 | 4.8 | 0.00 | 0.00 | 0.00 | 90 | 1015.3 |
| 20260905132301 | 25 | 124 | 1.6 | 6.4 | 0.00 | 0.00 | 0.00 | 90 | 1015.5 |
| 20260905132201 | 25 | 86 | 0.0 | 6.4 | 0.00 | 0.00 | 0.00 | 90 | 1015.5 |
| 20260905132101 | 25 | 81 | 3.2 | 6.4 | 0.00 | 0.00 | 0.00 | 90 | 1015.6 |
| 20260905131900 | 25 | 317 | 0.0 | 6.4 | 0.00 | 0.00 | 0.00 | 90 | 1015.6 |
| 20260905131802 | 25 | 27 | 1.6 | 6.4 | 0.00 | 0.00 | 0.00 | 90 | 1015.7 |
| 20260905131701 | 25 | 83 | 0.0 | 6.4 | 0.00 | 0.00 | 0.00 | 91 | 1015.7 |
| 20260905131601 | 25 | 37 | 0.0 | 6.4 | 0.00 | 0.00 | 0.00 | 90 | 1015.7 |
| 20260905131502 | 25 | 7 | 1.6 | 6.4 | 0.00 | 0.00 | 0.00 | 91 | 1015.7 |
| 20260905131401 | 25 | 17 | 1.6 | 4.8 | 0.00 | 0.00 | 0.00 | 91 | 1015.8 |
| 20260905131302 | 25 | 94 | 1.6 | 4.8 | 0.00 | 0.00 | 0.00 | 92 | 1015.7 |
| 20260905131201 | 25 | 340 | 0.0 | 4.8 | 0.00 | 0.00 | 0.00 | 92 | 1015.8 |
| 20260905131101 | 25 | 337 | 0.0 | 4.8 | 0.00 | 0.00 | 0.00 | 91 | 1015.8 |